GEFSNGP_prec_meanprecacc_288.txt.gz
Total_Precipitation_Accumulation
0.72 0.59 0.64 0.67 0.57 0.68 1.08 1.13 1.13 0.75 0.63 0.69 0.67 0.64 0.58 0.56 0.56 0.57 0.59 0.61 0.62 0.64 0.66 0.67 0.66 0.66 0.74 0.87 0.98 1.06 1.19 1.35 1.43 1.50 1.56 1.58 1.52 1.47 1.46 1.46 1.52 1.55 1.57 1.68
0.74 0.49 0.48 0.52 0.46 0.52 0.66 0.71 0.79 0.64 0.66 0.59 0.57 0.52 0.51 0.54 0.53 0.52 0.55 0.56 0.55 0.56 0.61 0.64 0.63 0.62 0.64 0.71 0.84 0.89 0.99 1.12 1.24 1.38 1.53 1.68 1.71 1.64 1.56 1.48 1.48 1.54 1.53 1.57
0.78 0.44 0.59 0.74 0.63 0.63 0.67 0.68 0.75 0.81 0.74 0.56 0.55 0.58 0.64 0.62 0.56 0.52 0.51 0.52 0.49 0.50 0.55 0.56 0.57 0.59 0.63 0.65 0.75 0.83 0.85 0.90 1.02 1.21 1.35 1.50 1.68 1.76 1.66 1.60 1.64 1.65 1.65 1.65
0.95 0.70 0.89 0.68 0.46 0.49 0.58 0.65 0.68 0.69 0.58 0.51 0.56 0.61 0.62 0.61 0.58 0.53 0.47 0.45 0.44 0.47 0.50 0.48 0.49 0.52 0.54 0.59 0.67 0.79 0.84 0.87 0.97 1.07 1.20 1.39 1.56 1.70 1.77 1.75 1.81 1.81 1.75 1.71
1.16 0.91 0.59 0.36 0.30 0.47 0.60 0.65 0.52 0.49 0.46 0.39 0.38 0.42 0.49 0.54 0.54 0.54 0.50 0.45 0.43 0.44 0.47 0.44 0.46 0.51 0.52 0.54 0.64 0.73 0.80 0.85 0.90 0.99 1.09 1.25 1.44 1.60 1.72 1.78 1.84 1.88 1.77 1.63
1.30 1.06 0.66 0.43 0.24 0.29 0.51 0.77 0.41 0.37 0.41 0.39 0.36 0.51 0.57 0.55 0.56 0.50 0.48 0.46 0.46 0.44 0.42 0.42 0.48 0.53 0.55 0.59 0.64 0.75 0.79 0.83 0.86 0.94 1.02 1.13 1.28 1.46 1.61 1.70 1.73 1.69 1.64 1.53
1.12 1.04 0.59 0.40 0.23 0.23 0.70 0.92 0.44 0.39 0.42 0.44 0.51 0.60 0.58 0.52 0.48 0.46 0.44 0.45 0.50 0.52 0.51 0.53 0.58 0.60 0.62 0.63 0.68 0.72 0.75 0.81 0.85 0.91 0.98 1.06 1.12 1.21 1.34 1.42 1.43 1.38 1.34 1.33
0.82 1.04 0.72 0.40 0.34 0.62 0.82 0.53 0.43 0.42 0.45 0.52 0.54 0.48 0.47 0.49 0.48 0.45 0.46 0.48 0.52 0.56 0.57 0.60 0.62 0.63 0.61 0.65 0.71 0.72 0.73 0.78 0.85 0.90 0.90 0.91 0.95 1.01 1.05 1.09 1.14 1.15 1.14 1.14
0.75 0.85 0.73 0.60 0.69 0.73 0.64 0.56 0.49 0.48 0.48 0.52 0.56 0.56 0.54 0.55 0.55 0.52 0.51 0.54 0.54 0.54 0.54 0.56 0.63 0.69 0.70 0.70 0.70 0.70 0.72 0.75 0.79 0.81 0.82 0.84 0.86 0.89 0.94 0.97 1.00 1.05 1.05 1.05
0.62 0.61 0.54 0.50 0.49 0.48 0.49 0.53 0.52 0.50 0.51 0.50 0.54 0.57 0.57 0.59 0.61 0.61 0.60 0.57 0.55 0.53 0.52 0.56 0.59 0.63 0.67 0.65 0.65 0.64 0.68 0.69 0.71 0.71 0.73 0.76 0.80 0.85 0.92 0.97 0.95 0.94 0.96 0.97
0.54 0.48 0.38 0.35 0.38 0.39 0.37 0.35 0.37 0.38 0.41 0.46 0.48 0.53 0.55 0.58 0.58 0.60 0.60 0.59 0.55 0.54 0.54 0.57 0.58 0.60 0.63 0.63 0.61 0.61 0.62 0.61 0.61 0.63 0.67 0.73 0.77 0.84 0.92 0.98 1.03 1.02 0.95 0.91
0.61 0.47 0.47 0.44 0.39 0.35 0.34 0.34 0.35 0.36 0.38 0.40 0.43 0.50 0.50 0.52 0.53 0.54 0.56 0.56 0.54 0.52 0.54 0.55 0.54 0.58 0.61 0.62 0.63 0.62 0.61 0.60 0.61 0.60 0.63 0.70 0.75 0.82 0.93 0.98 1.03 1.05 1.05 0.98
0.50 0.41 0.38 0.37 0.34 0.32 0.33 0.35 0.34 0.35 0.38 0.38 0.38 0.38 0.40 0.44 0.46 0.45 0.45 0.47 0.51 0.53 0.55 0.54 0.51 0.54 0.58 0.58 0.59 0.61 0.62 0.63 0.63 0.62 0.64 0.68 0.71 0.73 0.80 0.85 0.89 0.95 0.99 1.00
0.32 0.29 0.29 0.28 0.31 0.29 0.28 0.29 0.28 0.29 0.31 0.33 0.36 0.34 0.32 0.33 0.35 0.37 0.42 0.48 0.48 0.47 0.48 0.49 0.47 0.48 0.50 0.51 0.53 0.56 0.60 0.64 0.61 0.62 0.65 0.66 0.69 0.71 0.70 0.70 0.74 0.80 0.86 0.91
0.24 0.26 0.31 0.27 0.22 0.22 0.22 0.21 0.21 0.25 0.27 0.30 0.33 0.34 0.33 0.33 0.38 0.44 0.45 0.43 0.41 0.40 0.41 0.39 0.41 0.46 0.48 0.47 0.48 0.51 0.55 0.58 0.58 0.59 0.62 0.64 0.65 0.69 0.68 0.65 0.66 0.66 0.66 0.75
0.27 0.23 0.22 0.20 0.20 0.20 0.21 0.21 0.23 0.26 0.28 0.29 0.31 0.34 0.35 0.35 0.38 0.42 0.42 0.41 0.40 0.41 0.41 0.39 0.41 0.45 0.46 0.47 0.47 0.50 0.55 0.59 0.57 0.56 0.58 0.61 0.62 0.64 0.66 0.62 0.61 0.59 0.61 0.65
0.30 0.29 0.28 0.27 0.25 0.24 0.25 0.28 0.29 0.30 0.30 0.30 0.32 0.35 0.34 0.34 0.35 0.37 0.40 0.41 0.41 0.42 0.41 0.42 0.44 0.43 0.42 0.43 0.45 0.49 0.53 0.56 0.57 0.53 0.56 0.60 0.62 0.64 0.66 0.66 0.63 0.59 0.60 0.68
0.36 0.38 0.38 0.38 0.35 0.31 0.30 0.30 0.32 0.32 0.32 0.33 0.31 0.31 0.33 0.35 0.39 0.41 0.42 0.41 0.39 0.38 0.39 0.41 0.43 0.40 0.39 0.41 0.43 0.46 0.49 0.50 0.50 0.51 0.53 0.57 0.62 0.64 0.65 0.65 0.64 0.61 0.58 0.65
0.34 0.36 0.37 0.36 0.35 0.34 0.32 0.32 0.33 0.33 0.33 0.33 0.34 0.34 0.35 0.36 0.38 0.41 0.41 0.39 0.37 0.39 0.41 0.39 0.42 0.38 0.37 0.41 0.46 0.44 0.45 0.46 0.47 0.49 0.52 0.57 0.60 0.58 0.60 0.62 0.63 0.61 0.59 0.58
0.34 0.34 0.35 0.34 0.33 0.32 0.32 0.31 0.29 0.29 0.31 0.32 0.33 0.33 0.34 0.36 0.37 0.39 0.38 0.37 0.40 0.44 0.41 0.39 0.37 0.34 0.34 0.39 0.47 0.43 0.43 0.46 0.48 0.49 0.52 0.54 0.56 0.57 0.58 0.60 0.61 0.60 0.57 0.56
0.32 0.31 0.31 0.32 0.32 0.31 0.32 0.32 0.30 0.29 0.29 0.29 0.32 0.34 0.35 0.36 0.36 0.37 0.36 0.36 0.37 0.36 0.34 0.36 0.34 0.32 0.35 0.42 0.48 0.45 0.45 0.47 0.49 0.50 0.51 0.53 0.54 0.55 0.56 0.57 0.58 0.58 0.56 0.56
0.30 0.29 0.30 0.30 0.29 0.29 0.29 0.27 0.28 0.29 0.29 0.29 0.30 0.31 0.32 0.32 0.33 0.32 0.33 0.35 0.35 0.36 0.34 0.30 0.31 0.38 0.46 0.50 0.44 0.42 0.43 0.46 0.48 0.50 0.51 0.51 0.52 0.54 0.55 0.55 0.57 0.57 0.57 0.57
0.29 0.27 0.27 0.27 0.27 0.27 0.26 0.24 0.26 0.29 0.30 0.30 0.31 0.32 0.32 0.33 0.33 0.34 0.34 0.31 0.31 0.33 0.32 0.32 0.37 0.44 0.48 0.45 0.39 0.38 0.41 0.44 0.46 0.47 0.47 0.49 0.51 0.53 0.55 0.56 0.56 0.56 0.57 0.57
0.26 0.25 0.26 0.26 0.24 0.23 0.23 0.25 0.26 0.26 0.28 0.28 0.29 0.30 0.31 0.32 0.32 0.31 0.32 0.33 0.33 0.34 0.32 0.34 0.39 0.42 0.41 0.36 0.34 0.35 0.37 0.40 0.43 0.45 0.46 0.49 0.51 0.52 0.53 0.52 0.52 0.50 0.50 0.51
0.23 0.23 0.22 0.22 0.22 0.22 0.23 0.24 0.23 0.23 0.24 0.24 0.24 0.25 0.27 0.31 0.33 0.31 0.29 0.29 0.31 0.32 0.30 0.30 0.34 0.35 0.33 0.31 0.31 0.32 0.35 0.38 0.42 0.46 0.47 0.47 0.48 0.49 0.50 0.49 0.48 0.47 0.46 0.45
0.19 0.19 0.20 0.22 0.24 0.24 0.24 0.25 0.27 0.25 0.24 0.24 0.23 0.22 0.23 0.23 0.25 0.26 0.27 0.28 0.30 0.30 0.29 0.28 0.29 0.30 0.31 0.31 0.32 0.33 0.34 0.35 0.37 0.39 0.40 0.43 0.45 0.47 0.46 0.45 0.44 0.44 0.43 0.42
0.15 0.15 0.15 0.16 0.18 0.19 0.21 0.24 0.27 0.28 0.28 0.29 0.27 0.24 0.23 0.23 0.25 0.26 0.27 0.27 0.27 0.28 0.27 0.27 0.29 0.31 0.32 0.33 0.33 0.33 0.34 0.34 0.35 0.36 0.37 0.40 0.43 0.44 0.44 0.44 0.45 0.44 0.44 0.43

GEFSNGP_prec_meanprecacc_294.txt.gz
Total_Precipitation_Accumulation
0.73 0.59 0.65 0.68 0.57 0.69 1.09 1.14 1.14 0.76 0.64 0.71 0.70 0.67 0.62 0.60 0.59 0.60 0.62 0.65 0.67 0.70 0.73 0.74 0.70 0.71 0.80 0.93 1.05 1.13 1.30 1.47 1.51 1.55 1.59 1.61 1.55 1.49 1.48 1.50 1.58 1.61 1.65 1.74
0.74 0.49 0.48 0.52 0.46 0.53 0.67 0.72 0.80 0.64 0.67 0.60 0.59 0.55 0.54 0.57 0.56 0.55 0.59 0.61 0.61 0.63 0.69 0.71 0.69 0.67 0.70 0.77 0.90 0.95 1.08 1.25 1.36 1.46 1.57 1.71 1.74 1.68 1.60 1.54 1.55 1.60 1.60 1.65
0.79 0.45 0.60 0.74 0.64 0.63 0.67 0.69 0.76 0.82 0.74 0.56 0.56 0.59 0.67 0.66 0.60 0.57 0.55 0.57 0.55 0.57 0.63 0.64 0.63 0.65 0.68 0.71 0.81 0.90 0.92 0.99 1.13 1.32 1.43 1.55 1.72 1.82 1.74 1.69 1.71 1.72 1.73 1.76
0.96 0.70 0.90 0.68 0.46 0.49 0.58 0.66 0.68 0.69 0.58 0.51 0.56 0.62 0.64 0.64 0.63 0.58 0.51 0.50 0.50 0.53 0.57 0.56 0.56 0.58 0.61 0.63 0.72 0.86 0.92 0.97 1.08 1.20 1.32 1.49 1.66 1.80 1.88 1.86 1.91 1.90 1.86 1.85
1.18 0.92 0.59 0.36 0.30 0.47 0.61 0.65 0.52 0.50 0.46 0.40 0.38 0.42 0.50 0.56 0.57 0.59 0.54 0.49 0.48 0.51 0.55 0.52 0.54 0.59 0.58 0.59 0.69 0.79 0.87 0.94 1.01 1.12 1.22 1.38 1.57 1.72 1.83 1.87 1.92 1.96 1.86 1.74
1.32 1.08 0.67 0.44 0.25 0.29 0.52 0.78 0.41 0.38 0.41 0.39 0.36 0.51 0.58 0.56 0.57 0.53 0.52 0.51 0.51 0.50 0.48 0.48 0.56 0.61 0.62 0.65 0.70 0.80 0.85 0.91 0.95 1.05 1.14 1.24 1.40 1.57 1.72 1.80 1.82 1.78 1.71 1.61
1.14 1.06 0.60 0.40 0.24 0.24 0.71 0.94 0.44 0.40 0.43 0.44 0.51 0.60 0.58 0.53 0.50 0.48 0.46 0.48 0.53 0.56 0.56 0.58 0.64 0.68 0.69 0.70 0.74 0.79 0.82 0.88 0.94 0.99 1.09 1.17 1.20 1.29 1.41 1.49 1.52 1.50 1.43 1.41
0.84 1.06 0.74 0.41 0.35 0.64 0.83 0.54 0.44 0.42 0.46 0.52 0.54 0.48 0.48 0.49 0.49 0.46 0.47 0.50 0.53 0.58 0.61 0.64 0.67 0.69 0.69 0.72 0.78 0.79 0.80 0.85 0.93 0.99 1.00 1.04 1.06 1.09 1.12 1.16 1.24 1.29 1.24 1.22
0.77 0.87 0.76 0.61 0.71 0.75 0.66 0.57 0.50 0.49 0.48 0.52 0.56 0.57 0.55 0.56 0.56 0.54 0.53 0.56 0.55 0.55 0.56 0.58 0.67 0.74 0.77 0.77 0.77 0.77 0.78 0.82 0.85 0.88 0.91 0.95 1.00 1.01 1.04 1.06 1.11 1.19 1.16 1.14
0.63 0.63 0.56 0.51 0.50 0.49 0.50 0.54 0.52 0.51 0.52 0.51 0.54 0.57 0.57 0.59 0.61 0.62 0.61 0.59 0.57 0.54 0.53 0.57 0.61 0.66 0.71 0.70 0.69 0.69 0.75 0.76 0.77 0.77 0.80 0.85 0.91 0.97 1.04 1.09 1.07 1.07 1.07 1.06
0.55 0.49 0.39 0.36 0.39 0.40 0.38 0.36 0.37 0.39 0.42 0.47 0.48 0.53 0.55 0.58 0.59 0.61 0.61 0.60 0.57 0.55 0.56 0.59 0.59 0.61 0.65 0.67 0.64 0.64 0.67 0.67 0.68 0.71 0.75 0.81 0.87 0.95 1.04 1.08 1.14 1.14 1.06 1.00
0.62 0.48 0.48 0.45 0.40 0.36 0.34 0.34 0.36 0.36 0.38 0.40 0.43 0.51 0.50 0.53 0.54 0.55 0.58 0.57 0.55 0.53 0.55 0.56 0.55 0.59 0.62 0.64 0.65 0.65 0.65 0.65 0.66 0.66 0.70 0.77 0.84 0.92 1.04 1.08 1.12 1.13 1.13 1.07
0.52 0.42 0.39 0.37 0.34 0.32 0.33 0.35 0.35 0.35 0.38 0.38 0.38 0.38 0.41 0.44 0.47 0.46 0.46 0.48 0.53 0.55 0.56 0.55 0.53 0.56 0.60 0.60 0.60 0.63 0.66 0.67 0.68 0.68 0.70 0.75 0.77 0.80 0.89 0.94 0.96 1.01 1.06 1.07
0.33 0.29 0.30 0.28 0.31 0.29 0.28 0.29 0.28 0.29 0.31 0.33 0.36 0.34 0.33 0.34 0.35 0.38 0.43 0.49 0.50 0.49 0.51 0.51 0.48 0.50 0.52 0.53 0.55 0.60 0.64 0.68 0.66 0.67 0.71 0.72 0.74 0.77 0.76 0.77 0.80 0.85 0.91 0.97
0.24 0.26 0.31 0.27 0.23 0.22 0.23 0.21 0.21 0.25 0.27 0.30 0.33 0.34 0.33 0.33 0.38 0.44 0.45 0.44 0.42 0.41 0.43 0.42 0.43 0.48 0.51 0.50 0.52 0.56 0.59 0.62 0.62 0.64 0.67 0.69 0.70 0.73 0.73 0.70 0.70 0.70 0.70 0.80
0.27 0.24 0.22 0.20 0.21 0.21 0.21 0.22 0.23 0.27 0.28 0.29 0.32 0.34 0.35 0.36 0.39 0.42 0.43 0.42 0.41 0.43 0.43 0.41 0.44 0.48 0.50 0.52 0.52 0.56 0.60 0.64 0.61 0.60 0.63 0.66 0.66 0.68 0.70 0.66 0.65 0.64 0.65 0.70
0.31 0.30 0.28 0.27 0.25 0.24 0.26 0.29 0.30 0.30 0.31 0.31 0.33 0.35 0.34 0.34 0.35 0.38 0.41 0.42 0.42 0.43 0.43 0.43 0.47 0.46 0.46 0.48 0.51 0.55 0.58 0.60 0.61 0.58 0.60 0.64 0.67 0.69 0.70 0.70 0.67 0.63 0.65 0.74
0.37 0.38 0.39 0.38 0.36 0.32 0.30 0.31 0.32 0.32 0.33 0.33 0.32 0.31 0.33 0.35 0.39 0.42 0.43 0.41 0.39 0.39 0.40 0.42 0.44 0.42 0.42 0.45 0.48 0.50 0.53 0.54 0.53 0.54 0.56 0.60 0.65 0.68 0.69 0.69 0.67 0.65 0.63 0.69
0.34 0.37 0.37 0.37 0.36 0.35 0.33 0.33 0.34 0.33 0.33 0.33 0.34 0.34 0.35 0.37 0.39 0.41 0.42 0.39 0.38 0.40 0.42 0.40 0.43 0.39 0.39 0.44 0.49 0.48 0.49 0.49 0.50 0.52 0.54 0.60 0.62 0.61 0.63 0.65 0.66 0.64 0.62 0.62
0.34 0.35 0.36 0.35 0.34 0.33 0.33 0.32 0.30 0.29 0.31 0.32 0.33 0.33 0.35 0.36 0.37 0.39 0.38 0.38 0.41 0.45 0.43 0.41 0.38 0.35 0.36 0.42 0.49 0.46 0.46 0.48 0.49 0.51 0.53 0.55 0.57 0.58 0.60 0.62 0.63 0.62 0.59 0.58
0.32 0.32 0.32 0.32 0.32 0.31 0.32 0.32 0.31 0.30 0.29 0.29 0.32 0.35 0.35 0.36 0.37 0.37 0.36 0.37 0.38 0.37 0.35 0.38 0.35 0.34 0.37 0.44 0.50 0.47 0.46 0.48 0.50 0.51 0.53 0.54 0.55 0.56 0.57 0.58 0.59 0.59 0.58 0.57
0.30 0.30 0.31 0.30 0.29 0.30 0.29 0.28 0.29 0.30 0.29 0.29 0.31 0.32 0.32 0.33 0.33 0.33 0.33 0.36 0.36 0.37 0.35 0.32 0.32 0.39 0.47 0.52 0.46 0.43 0.44 0.47 0.49 0.51 0.51 0.52 0.53 0.55 0.56 0.56 0.58 0.58 0.59 0.59
0.29 0.28 0.28 0.27 0.27 0.28 0.26 0.25 0.26 0.29 0.30 0.31 0.31 0.32 0.33 0.33 0.33 0.35 0.35 0.32 0.32 0.35 0.33 0.33 0.39 0.45 0.50 0.46 0.40 0.39 0.41 0.44 0.46 0.47 0.48 0.49 0.52 0.54 0.56 0.57 0.57 0.57 0.58 0.58
0.26 0.25 0.26 0.26 0.25 0.24 0.24 0.25 0.26 0.27 0.28 0.29 0.29 0.31 0.32 0.33 0.32 0.31 0.34 0.34 0.35 0.36 0.34 0.35 0.40 0.43 0.42 0.37 0.34 0.36 0.38 0.41 0.44 0.46 0.47 0.49 0.51 0.53 0.53 0.53 0.53 0.51 0.51 0.52
0.23 0.23 0.23 0.23 0.23 0.22 0.24 0.24 0.24 0.24 0.24 0.25 0.25 0.26 0.28 0.31 0.34 0.32 0.30 0.31 0.32 0.33 0.31 0.32 0.35 0.36 0.34 0.31 0.31 0.33 0.35 0.38 0.43 0.47 0.48 0.48 0.48 0.50 0.50 0.49 0.49 0.48 0.46 0.46
0.19 0.20 0.21 0.22 0.24 0.25 0.25 0.26 0.27 0.25 0.25 0.25 0.24 0.23 0.23 0.24 0.25 0.27 0.28 0.30 0.31 0.32 0.30 0.29 0.30 0.31 0.31 0.31 0.32 0.33 0.34 0.36 0.38 0.39 0.40 0.43 0.45 0.47 0.47 0.46 0.44 0.44 0.44 0.42
0.16 0.16 0.16 0.17 0.18 0.20 0.21 0.24 0.28 0.29 0.28 0.30 0.28 0.24 0.23 0.24 0.25 0.27 0.28 0.28 0.29 0.30 0.29 0.29 0.30 0.32 0.33 0.33 0.34 0.34 0.34 0.35 0.35 0.36 0.38 0.40 0.43 0.45 0.45 0.45 0.45 0.44 0.44 0.43

GEFSNGP_prec_meanprecacc_300.txt.gz
Total_Precipitation_Accumulation
0.73 0.59 0.65 0.68 0.58 0.69 1.10 1.15 1.15 0.77 0.64 0.71 0.71 0.69 0.64 0.62 0.64 0.67 0.73 0.73 0.73 0.77 0.79 0.79 0.75 0.76 0.85 0.99 1.12 1.20 1.35 1.52 1.57 1.61 1.65 1.66 1.59 1.54 1.52 1.54 1.63 1.66 1.69 1.79
0.74 0.50 0.48 0.52 0.46 0.53 0.68 0.73 0.80 0.65 0.67 0.60 0.59 0.56 0.56 0.60 0.60 0.61 0.69 0.70 0.68 0.70 0.75 0.77 0.74 0.72 0.75 0.83 0.97 1.02 1.15 1.31 1.42 1.51 1.62 1.76 1.78 1.72 1.64 1.56 1.58 1.65 1.66 1.72
0.79 0.45 0.60 0.75 0.64 0.63 0.68 0.70 0.77 0.83 0.75 0.56 0.56 0.60 0.69 0.69 0.63 0.62 0.64 0.67 0.63 0.64 0.70 0.70 0.69 0.71 0.74 0.77 0.88 0.96 0.98 1.05 1.19 1.38 1.47 1.58 1.77 1.86 1.78 1.71 1.74 1.75 1.78 1.83
0.97 0.70 0.91 0.69 0.47 0.50 0.59 0.67 0.70 0.71 0.59 0.52 0.56 0.63 0.66 0.67 0.68 0.63 0.59 0.58 0.57 0.60 0.64 0.63 0.62 0.65 0.68 0.70 0.79 0.92 0.97 1.03 1.15 1.27 1.38 1.53 1.70 1.85 1.92 1.89 1.94 1.94 1.92 1.92
1.19 0.93 0.60 0.37 0.31 0.48 0.62 0.66 0.54 0.51 0.47 0.40 0.39 0.43 0.51 0.57 0.61 0.65 0.62 0.56 0.55 0.58 0.61 0.59 0.60 0.66 0.66 0.67 0.77 0.86 0.93 1.01 1.08 1.20 1.30 1.45 1.62 1.76 1.87 1.91 1.96 2.00 1.90 1.80
1.34 1.10 0.68 0.45 0.25 0.30 0.53 0.79 0.43 0.39 0.42 0.40 0.37 0.52 0.59 0.57 0.60 0.57 0.58 0.58 0.56 0.55 0.54 0.54 0.62 0.68 0.70 0.73 0.77 0.88 0.93 0.98 1.02 1.12 1.22 1.32 1.46 1.61 1.75 1.84 1.85 1.80 1.74 1.65
1.16 1.08 0.60 0.41 0.25 0.25 0.72 0.95 0.45 0.41 0.44 0.45 0.52 0.61 0.59 0.54 0.51 0.50 0.51 0.55 0.59 0.61 0.61 0.63 0.69 0.74 0.76 0.77 0.81 0.86 0.90 0.96 1.01 1.07 1.17 1.25 1.27 1.34 1.45 1.53 1.55 1.52 1.46 1.45
0.86 1.08 0.75 0.41 0.36 0.65 0.85 0.55 0.45 0.43 0.47 0.53 0.55 0.49 0.48 0.50 0.50 0.47 0.50 0.54 0.60 0.64 0.66 0.68 0.71 0.73 0.74 0.79 0.85 0.85 0.88 0.93 1.01 1.06 1.08 1.12 1.13 1.14 1.17 1.21 1.28 1.33 1.28 1.26
0.78 0.88 0.77 0.62 0.73 0.78 0.68 0.59 0.51 0.50 0.50 0.53 0.57 0.57 0.55 0.57 0.57 0.55 0.54 0.58 0.59 0.60 0.62 0.64 0.71 0.78 0.81 0.82 0.84 0.85 0.87 0.90 0.94 0.96 0.98 1.04 1.08 1.08 1.11 1.12 1.18 1.27 1.21 1.18
0.65 0.64 0.57 0.53 0.52 0.51 0.52 0.56 0.54 0.53 0.53 0.52 0.55 0.58 0.58 0.61 0.63 0.63 0.62 0.60 0.58 0.56 0.57 0.62 0.66 0.71 0.75 0.74 0.74 0.77 0.83 0.84 0.87 0.86 0.89 0.93 1.00 1.07 1.13 1.17 1.16 1.17 1.14 1.12
0.57 0.50 0.40 0.37 0.40 0.41 0.39 0.37 0.39 0.40 0.43 0.48 0.49 0.54 0.56 0.59 0.60 0.62 0.62 0.61 0.57 0.56 0.57 0.61 0.62 0.65 0.70 0.71 0.69 0.70 0.74 0.75 0.77 0.80 0.84 0.92 0.98 1.06 1.14 1.19 1.26 1.27 1.16 1.09
0.64 0.50 0.49 0.46 0.41 0.37 0.35 0.35 0.37 0.37 0.39 0.41 0.44 0.51 0.51 0.53 0.55 0.56 0.58 0.58 0.55 0.54 0.55 0.57 0.57 0.60 0.65 0.67 0.68 0.69 0.70 0.71 0.74 0.75 0.80 0.88 0.95 1.03 1.15 1.19 1.23 1.25 1.24 1.16
0.53 0.43 0.40 0.38 0.35 0.33 0.34 0.36 0.35 0.36 0.39 0.39 0.38 0.39 0.41 0.45 0.47 0.47 0.47 0.49 0.53 0.56 0.57 0.56 0.54 0.57 0.61 0.61 0.62 0.65 0.69 0.72 0.74 0.75 0.79 0.85 0.87 0.90 1.00 1.04 1.05 1.11 1.16 1.16
0.34 0.30 0.30 0.29 0.31 0.30 0.29 0.30 0.28 0.29 0.32 0.34 0.36 0.35 0.33 0.34 0.36 0.38 0.44 0.50 0.51 0.50 0.51 0.51 0.49 0.50 0.53 0.54 0.56 0.61 0.66 0.71 0.70 0.72 0.78 0.80 0.84 0.86 0.86 0.86 0.89 0.94 1.01 1.07
0.25 0.27 0.32 0.27 0.23 0.22 0.23 0.22 0.22 0.25 0.27 0.31 0.33 0.34 0.34 0.34 0.38 0.44 0.46 0.44 0.43 0.42 0.43 0.42 0.43 0.49 0.51 0.51 0.53 0.57 0.61 0.65 0.66 0.68 0.73 0.76 0.78 0.82 0.82 0.80 0.80 0.80 0.80 0.89
0.27 0.24 0.22 0.21 0.21 0.21 0.21 0.22 0.23 0.27 0.28 0.30 0.32 0.34 0.35 0.36 0.39 0.42 0.43 0.42 0.41 0.43 0.44 0.42 0.44 0.48 0.50 0.52 0.53 0.57 0.61 0.66 0.64 0.64 0.67 0.71 0.73 0.75 0.78 0.75 0.73 0.72 0.74 0.80
0.31 0.30 0.28 0.27 0.26 0.25 0.26 0.29 0.30 0.31 0.31 0.31 0.33 0.35 0.34 0.34 0.35 0.38 0.41 0.42 0.42 0.44 0.44 0.44 0.48 0.47 0.47 0.49 0.52 0.56 0.60 0.62 0.63 0.61 0.63 0.68 0.71 0.74 0.77 0.77 0.74 0.70 0.72 0.82
0.37 0.39 0.39 0.39 0.36 0.33 0.31 0.31 0.33 0.33 0.33 0.34 0.32 0.31 0.33 0.35 0.39 0.42 0.43 0.41 0.40 0.40 0.41 0.44 0.45 0.43 0.43 0.46 0.49 0.52 0.55 0.56 0.55 0.57 0.59 0.64 0.69 0.72 0.74 0.75 0.73 0.70 0.69 0.76
0.35 0.37 0.38 0.37 0.37 0.35 0.34 0.33 0.34 0.34 0.34 0.34 0.34 0.35 0.35 0.37 0.39 0.42 0.42 0.40 0.38 0.41 0.43 0.41 0.44 0.40 0.40 0.46 0.51 0.49 0.50 0.51 0.52 0.54 0.57 0.63 0.66 0.64 0.66 0.69 0.70 0.68 0.66 0.67
0.34 0.35 0.36 0.36 0.34 0.34 0.34 0.32 0.30 0.30 0.31 0.32 0.33 0.34 0.35 0.37 0.38 0.39 0.39 0.38 0.42 0.46 0.44 0.42 0.40 0.36 0.38 0.43 0.51 0.48 0.48 0.50 0.51 0.53 0.56 0.58 0.60 0.61 0.63 0.65 0.66 0.65 0.63 0.62
0.33 0.32 0.32 0.33 0.33 0.32 0.33 0.33 0.31 0.30 0.29 0.30 0.33 0.35 0.36 0.37 0.37 0.38 0.37 0.37 0.38 0.38 0.36 0.39 0.37 0.35 0.38 0.45 0.51 0.48 0.47 0.50 0.52 0.53 0.54 0.56 0.57 0.58 0.60 0.60 0.62 0.62 0.61 0.60
0.31 0.30 0.31 0.31 0.30 0.30 0.30 0.28 0.29 0.30 0.30 0.30 0.31 0.32 0.32 0.33 0.34 0.33 0.34 0.37 0.37 0.38 0.36 0.33 0.34 0.41 0.49 0.53 0.47 0.44 0.45 0.48 0.50 0.52 0.53 0.53 0.55 0.57 0.58 0.58 0.60 0.60 0.61 0.61
0.30 0.28 0.28 0.28 0.28 0.29 0.27 0.25 0.27 0.30 0.31 0.31 0.32 0.33 0.33 0.34 0.34 0.35 0.35 0.33 0.33 0.36 0.34 0.34 0.40 0.47 0.51 0.47 0.41 0.40 0.42 0.45 0.47 0.48 0.49 0.50 0.53 0.56 0.58 0.58 0.58 0.58 0.60 0.60
0.26 0.26 0.27 0.27 0.25 0.24 0.24 0.25 0.27 0.28 0.29 0.30 0.30 0.31 0.33 0.34 0.33 0.32 0.35 0.35 0.36 0.37 0.35 0.37 0.42 0.45 0.44 0.38 0.35 0.36 0.38 0.41 0.44 0.46 0.47 0.50 0.52 0.54 0.54 0.54 0.54 0.52 0.52 0.53
0.24 0.23 0.23 0.23 0.23 0.23 0.24 0.25 0.24 0.24 0.25 0.25 0.25 0.27 0.29 0.32 0.35 0.33 0.31 0.31 0.33 0.34 0.32 0.33 0.36 0.37 0.35 0.32 0.32 0.33 0.35 0.38 0.43 0.47 0.48 0.48 0.49 0.50 0.51 0.50 0.50 0.49 0.47 0.46
0.20 0.20 0.21 0.23 0.25 0.25 0.25 0.26 0.28 0.26 0.25 0.26 0.25 0.24 0.24 0.24 0.26 0.27 0.29 0.30 0.32 0.33 0.32 0.30 0.31 0.32 0.32 0.32 0.33 0.34 0.35 0.36 0.38 0.40 0.41 0.43 0.45 0.47 0.47 0.46 0.45 0.45 0.45 0.43
0.16 0.16 0.16 0.17 0.19 0.20 0.22 0.25 0.29 0.29 0.29 0.31 0.29 0.25 0.24 0.24 0.26 0.27 0.28 0.29 0.30 0.31 0.30 0.30 0.31 0.33 0.33 0.34 0.35 0.35 0.35 0.35 0.36 0.37 0.38 0.41 0.43 0.45 0.45 0.45 0.46 0.45 0.45 0.44

GEFSNGP_prec_meanprecacc_306.txt.gz
Total_Precipitation_Accumulation
0.73 0.59 0.65 0.68 0.58 0.69 1.10 1.16 1.16 0.78 0.65 0.72 0.72 0.71 0.67 0.65 0.67 0.70 0.76 0.78 0.80 0.83 0.86 0.88 0.85 0.86 0.95 1.06 1.16 1.24 1.40 1.56 1.61 1.66 1.72 1.73 1.64 1.57 1.56 1.59 1.69 1.72 1.74 1.82
0.75 0.50 0.49 0.53 0.46 0.53 0.68 0.73 0.81 0.65 0.67 0.61 0.60 0.58 0.58 0.61 0.62 0.65 0.73 0.76 0.75 0.76 0.83 0.84 0.82 0.83 0.85 0.91 1.03 1.06 1.18 1.34 1.45 1.55 1.67 1.83 1.85 1.77 1.69 1.61 1.62 1.70 1.72 1.77
0.80 0.45 0.61 0.75 0.65 0.64 0.68 0.70 0.77 0.84 0.75 0.56 0.57 0.61 0.71 0.71 0.66 0.65 0.69 0.75 0.72 0.73 0.79 0.78 0.77 0.81 0.84 0.84 0.93 1.01 1.02 1.08 1.22 1.40 1.50 1.63 1.83 1.92 1.84 1.77 1.78 1.80 1.83 1.88
0.98 0.71 0.92 0.70 0.47 0.50 0.59 0.67 0.71 0.71 0.60 0.52 0.57 0.63 0.67 0.69 0.71 0.66 0.64 0.67 0.69 0.72 0.76 0.72 0.71 0.75 0.76 0.76 0.83 0.96 1.02 1.06 1.18 1.29 1.40 1.56 1.75 1.89 1.96 1.94 1.99 1.98 1.95 1.96
1.20 0.94 0.60 0.37 0.31 0.49 0.63 0.67 0.55 0.52 0.47 0.41 0.39 0.44 0.52 0.58 0.62 0.68 0.67 0.65 0.67 0.71 0.75 0.69 0.70 0.77 0.76 0.74 0.81 0.90 0.99 1.05 1.11 1.22 1.32 1.46 1.64 1.79 1.90 1.95 2.01 2.04 1.93 1.84
1.36 1.11 0.69 0.45 0.26 0.31 0.54 0.79 0.43 0.40 0.43 0.41 0.38 0.54 0.60 0.58 0.61 0.59 0.61 0.64 0.66 0.68 0.67 0.66 0.73 0.78 0.79 0.81 0.84 0.94 0.99 1.03 1.06 1.15 1.25 1.34 1.48 1.63 1.78 1.87 1.89 1.85 1.78 1.68
1.18 1.09 0.61 0.41 0.25 0.25 0.73 0.96 0.46 0.42 0.46 0.47 0.54 0.64 0.62 0.55 0.53 0.52 0.54 0.59 0.67 0.71 0.74 0.75 0.81 0.84 0.85 0.85 0.89 0.93 0.97 1.02 1.05 1.10 1.20 1.28 1.30 1.37 1.48 1.56 1.59 1.57 1.49 1.48
0.88 1.10 0.75 0.42 0.36 0.66 0.86 0.56 0.46 0.44 0.48 0.55 0.56 0.50 0.50 0.52 0.52 0.49 0.52 0.57 0.65 0.73 0.77 0.78 0.80 0.83 0.83 0.87 0.93 0.93 0.95 1.00 1.05 1.09 1.11 1.15 1.17 1.18 1.21 1.25 1.32 1.37 1.31 1.29
0.80 0.89 0.77 0.63 0.74 0.79 0.69 0.60 0.52 0.51 0.50 0.54 0.59 0.59 0.57 0.59 0.59 0.56 0.56 0.60 0.62 0.66 0.70 0.73 0.80 0.86 0.88 0.90 0.91 0.93 0.95 0.97 1.00 1.00 1.02 1.07 1.12 1.13 1.16 1.19 1.23 1.31 1.25 1.21
0.67 0.65 0.58 0.54 0.54 0.52 0.53 0.57 0.55 0.54 0.54 0.53 0.57 0.60 0.60 0.62 0.64 0.64 0.63 0.61 0.60 0.59 0.62 0.69 0.75 0.81 0.84 0.81 0.81 0.84 0.91 0.93 0.94 0.92 0.94 0.98 1.05 1.11 1.18 1.24 1.23 1.23 1.19 1.15
0.59 0.52 0.42 0.39 0.40 0.42 0.40 0.38 0.40 0.41 0.44 0.49 0.50 0.55 0.58 0.61 0.61 0.63 0.63 0.62 0.59 0.58 0.60 0.65 0.68 0.73 0.79 0.80 0.75 0.76 0.81 0.83 0.85 0.87 0.90 0.98 1.03 1.12 1.21 1.26 1.33 1.34 1.22 1.14
0.67 0.51 0.50 0.47 0.42 0.38 0.35 0.36 0.37 0.38 0.39 0.42 0.45 0.52 0.52 0.54 0.56 0.57 0.59 0.59 0.56 0.54 0.57 0.59 0.60 0.65 0.70 0.74 0.76 0.77 0.78 0.79 0.82 0.83 0.88 0.95 1.02 1.09 1.22 1.28 1.30 1.31 1.30 1.21
0.55 0.45 0.41 0.39 0.36 0.34 0.35 0.37 0.36 0.36 0.39 0.40 0.39 0.39 0.42 0.46 0.48 0.47 0.47 0.50 0.54 0.56 0.57 0.56 0.55 0.59 0.64 0.65 0.67 0.72 0.77 0.80 0.82 0.83 0.88 0.93 0.95 0.99 1.08 1.14 1.15 1.18 1.22 1.21
0.35 0.32 0.32 0.30 0.33 0.31 0.30 0.31 0.29 0.30 0.32 0.35 0.37 0.36 0.34 0.34 0.36 0.38 0.44 0.50 0.51 0.51 0.52 0.52 0.50 0.51 0.54 0.55 0.59 0.64 0.70 0.77 0.77 0.81 0.87 0.89 0.93 0.95 0.95 0.97 1.00 1.04 1.09 1.14
0.26 0.28 0.33 0.28 0.24 0.23 0.23 0.22 0.22 0.25 0.27 0.31 0.33 0.35 0.34 0.34 0.38 0.45 0.46 0.45 0.43 0.42 0.44 0.43 0.44 0.49 0.52 0.52 0.55 0.58 0.63 0.68 0.70 0.74 0.79 0.84 0.86 0.91 0.92 0.90 0.91 0.91 0.91 1.00
0.28 0.24 0.23 0.21 0.21 0.21 0.22 0.22 0.23 0.27 0.29 0.30 0.32 0.34 0.36 0.36 0.39 0.42 0.43 0.42 0.42 0.44 0.45 0.42 0.45 0.49 0.50 0.53 0.54 0.57 0.62 0.68 0.67 0.68 0.72 0.76 0.80 0.83 0.86 0.85 0.84 0.83 0.86 0.93
0.32 0.30 0.29 0.28 0.26 0.25 0.27 0.29 0.31 0.31 0.31 0.31 0.33 0.35 0.35 0.34 0.36 0.38 0.41 0.42 0.43 0.45 0.45 0.45 0.48 0.47 0.47 0.49 0.52 0.56 0.60 0.63 0.65 0.63 0.67 0.73 0.77 0.81 0.84 0.85 0.84 0.80 0.83 0.94
0.38 0.39 0.40 0.39 0.37 0.33 0.31 0.32 0.33 0.33 0.33 0.34 0.32 0.32 0.34 0.36 0.40 0.42 0.44 0.42 0.40 0.40 0.41 0.44 0.46 0.44 0.43 0.46 0.50 0.52 0.55 0.56 0.56 0.58 0.62 0.68 0.74 0.78 0.81 0.83 0.82 0.80 0.79 0.87
0.35 0.38 0.38 0.38 0.38 0.36 0.35 0.34 0.35 0.34 0.34 0.34 0.35 0.35 0.36 0.37 0.39 0.42 0.43 0.40 0.39 0.41 0.43 0.42 0.45 0.41 0.40 0.46 0.51 0.50 0.51 0.52 0.53 0.55 0.59 0.66 0.70 0.69 0.72 0.76 0.78 0.77 0.76 0.77
0.35 0.36 0.36 0.36 0.35 0.34 0.34 0.33 0.31 0.30 0.32 0.33 0.34 0.34 0.35 0.37 0.38 0.40 0.39 0.39 0.43 0.47 0.45 0.43 0.41 0.37 0.38 0.44 0.52 0.49 0.49 0.51 0.53 0.55 0.57 0.60 0.62 0.64 0.67 0.70 0.72 0.71 0.70 0.69
0.33 0.33 0.33 0.33 0.33 0.32 0.33 0.34 0.32 0.31 0.30 0.30 0.33 0.36 0.36 0.37 0.38 0.38 0.38 0.38 0.38 0.38 0.37 0.40 0.38 0.36 0.40 0.47 0.52 0.49 0.49 0.51 0.53 0.55 0.56 0.57 0.59 0.61 0.62 0.64 0.66 0.66 0.66 0.66
0.31 0.31 0.31 0.31 0.30 0.31 0.30 0.29 0.30 0.31 0.30 0.30 0.31 0.33 0.33 0.33 0.34 0.34 0.35 0.38 0.38 0.39 0.37 0.34 0.35 0.42 0.51 0.55 0.49 0.45 0.47 0.49 0.51 0.53 0.54 0.54 0.56 0.58 0.59 0.61 0.63 0.64 0.64 0.65
0.30 0.29 0.29 0.28 0.28 0.29 0.27 0.26 0.27 0.30 0.32 0.32 0.32 0.33 0.34 0.35 0.35 0.36 0.36 0.34 0.34 0.37 0.36 0.36 0.42 0.49 0.53 0.49 0.42 0.41 0.44 0.46 0.48 0.49 0.50 0.51 0.54 0.57 0.59 0.60 0.60 0.60 0.62 0.62
0.27 0.26 0.27 0.27 0.26 0.24 0.25 0.26 0.27 0.28 0.30 0.30 0.31 0.32 0.34 0.35 0.33 0.33 0.36 0.36 0.37 0.38 0.36 0.38 0.43 0.46 0.45 0.39 0.36 0.37 0.39 0.42 0.45 0.47 0.48 0.50 0.52 0.54 0.55 0.55 0.55 0.53 0.53 0.55
0.24 0.24 0.24 0.24 0.23 0.23 0.25 0.25 0.24 0.24 0.25 0.26 0.26 0.27 0.29 0.33 0.36 0.34 0.31 0.32 0.34 0.35 0.33 0.34 0.37 0.38 0.36 0.33 0.32 0.34 0.36 0.39 0.44 0.48 0.49 0.49 0.50 0.51 0.51 0.50 0.50 0.49 0.48 0.47
0.20 0.21 0.21 0.23 0.26 0.26 0.26 0.27 0.29 0.26 0.26 0.26 0.25 0.24 0.24 0.25 0.26 0.28 0.29 0.31 0.33 0.34 0.32 0.31 0.32 0.33 0.33 0.33 0.33 0.34 0.35 0.37 0.39 0.40 0.42 0.44 0.46 0.48 0.48 0.47 0.45 0.46 0.45 0.44
0.16 0.16 0.16 0.17 0.19 0.21 0.23 0.26 0.29 0.30 0.30 0.31 0.30 0.25 0.24 0.25 0.26 0.28 0.29 0.29 0.31 0.31 0.31 0.31 0.32 0.34 0.34 0.35 0.35 0.35 0.36 0.36 0.37 0.38 0.39 0.42 0.44 0.46 0.46 0.46 0.46 0.46 0.46 0.45

GEFSNGP_prec_meanprecacc_312.txt.gz
Total_Precipitation_Accumulation
0.74 0.60 0.66 0.69 0.58 0.70 1.11 1.16 1.17 0.78 0.66 0.72 0.72 0.73 0.68 0.67 0.68 0.72 0.78 0.80 0.82 0.85 0.89 0.93 0.89 0.90 1.00 1.12 1.21 1.27 1.43 1.59 1.64 1.69 1.76 1.77 1.68 1.63 1.63 1.65 1.73 1.74 1.75 1.84
0.76 0.51 0.50 0.54 0.47 0.54 0.68 0.74 0.81 0.66 0.68 0.61 0.61 0.59 0.59 0.63 0.64 0.67 0.76 0.79 0.77 0.78 0.85 0.88 0.87 0.88 0.90 0.97 1.09 1.14 1.24 1.38 1.48 1.58 1.71 1.87 1.89 1.81 1.74 1.66 1.67 1.75 1.75 1.80
0.82 0.46 0.62 0.77 0.65 0.64 0.69 0.71 0.78 0.84 0.76 0.57 0.57 0.62 0.72 0.73 0.68 0.67 0.71 0.77 0.75 0.76 0.82 0.81 0.81 0.85 0.89 0.89 1.00 1.09 1.11 1.15 1.27 1.44 1.54 1.67 1.87 1.96 1.88 1.81 1.82 1.83 1.87 1.92
1.01 0.73 0.94 0.71 0.48 0.50 0.60 0.68 0.71 0.72 0.60 0.52 0.57 0.64 0.68 0.71 0.73 0.69 0.66 0.70 0.72 0.76 0.80 0.76 0.75 0.79 0.82 0.82 0.89 1.03 1.10 1.15 1.26 1.35 1.44 1.60 1.79 1.94 2.01 1.99 2.03 2.01 1.98 1.99
1.24 0.96 0.62 0.38 0.32 0.49 0.63 0.68 0.55 0.52 0.47 0.41 0.40 0.44 0.53 0.59 0.64 0.70 0.69 0.68 0.71 0.77 0.82 0.76 0.75 0.82 0.83 0.80 0.86 0.95 1.04 1.12 1.19 1.30 1.38 1.50 1.68 1.84 1.94 1.99 2.05 2.07 1.95 1.86
1.40 1.14 0.70 0.46 0.26 0.31 0.54 0.80 0.44 0.40 0.43 0.41 0.39 0.55 0.61 0.59 0.62 0.61 0.64 0.66 0.70 0.74 0.74 0.73 0.80 0.85 0.87 0.89 0.89 0.99 1.04 1.08 1.11 1.21 1.31 1.39 1.52 1.67 1.81 1.90 1.92 1.88 1.80 1.70
1.21 1.12 0.62 0.42 0.26 0.26 0.74 0.97 0.47 0.43 0.46 0.48 0.55 0.65 0.63 0.57 0.54 0.54 0.56 0.62 0.70 0.77 0.81 0.83 0.89 0.93 0.93 0.93 0.96 0.99 1.01 1.06 1.08 1.13 1.24 1.33 1.35 1.41 1.52 1.60 1.62 1.60 1.52 1.51
0.90 1.13 0.77 0.42 0.37 0.67 0.88 0.56 0.46 0.45 0.49 0.56 0.57 0.51 0.51 0.53 0.53 0.51 0.54 0.59 0.68 0.77 0.84 0.86 0.89 0.92 0.91 0.95 1.01 1.00 1.00 1.04 1.08 1.13 1.15 1.20 1.21 1.22 1.24 1.28 1.35 1.40 1.34 1.31
0.83 0.92 0.79 0.64 0.75 0.80 0.70 0.61 0.53 0.52 0.51 0.55 0.60 0.60 0.58 0.60 0.60 0.58 0.57 0.62 0.65 0.70 0.76 0.81 0.89 0.95 0.97 0.98 0.99 1.00 1.02 1.03 1.04 1.04 1.06 1.12 1.16 1.16 1.19 1.22 1.25 1.34 1.27 1.23
0.68 0.67 0.59 0.55 0.54 0.52 0.53 0.58 0.56 0.55 0.55 0.54 0.58 0.61 0.61 0.63 0.65 0.65 0.64 0.63 0.62 0.62 0.66 0.75 0.82 0.88 0.92 0.89 0.89 0.92 0.99 1.00 1.01 0.97 0.99 1.03 1.09 1.14 1.21 1.28 1.26 1.25 1.21 1.17
0.60 0.53 0.43 0.39 0.41 0.42 0.40 0.39 0.40 0.42 0.45 0.50 0.51 0.56 0.59 0.61 0.62 0.64 0.64 0.63 0.60 0.61 0.63 0.70 0.73 0.79 0.87 0.87 0.83 0.85 0.89 0.91 0.93 0.94 0.97 1.04 1.08 1.16 1.25 1.30 1.36 1.37 1.26 1.16
0.68 0.53 0.52 0.48 0.43 0.38 0.36 0.37 0.38 0.39 0.40 0.42 0.46 0.53 0.53 0.55 0.57 0.58 0.60 0.60 0.57 0.56 0.59 0.62 0.64 0.70 0.76 0.81 0.83 0.84 0.85 0.87 0.90 0.91 0.94 1.01 1.07 1.14 1.27 1.32 1.33 1.35 1.34 1.25
0.57 0.46 0.43 0.41 0.37 0.35 0.35 0.37 0.37 0.37 0.40 0.41 0.40 0.40 0.43 0.46 0.48 0.48 0.48 0.50 0.55 0.57 0.59 0.58 0.58 0.63 0.69 0.71 0.74 0.78 0.84 0.88 0.90 0.91 0.94 0.99 1.01 1.03 1.13 1.18 1.18 1.21 1.26 1.25
0.37 0.33 0.33 0.31 0.33 0.31 0.30 0.31 0.30 0.31 0.33 0.35 0.38 0.36 0.34 0.35 0.37 0.39 0.45 0.51 0.52 0.51 0.53 0.53 0.51 0.54 0.58 0.60 0.64 0.70 0.76 0.84 0.84 0.88 0.93 0.95 0.98 1.00 0.99 1.01 1.04 1.07 1.12 1.17
0.27 0.29 0.34 0.29 0.24 0.24 0.24 0.23 0.22 0.26 0.28 0.31 0.34 0.36 0.35 0.34 0.39 0.45 0.46 0.45 0.44 0.43 0.45 0.44 0.45 0.51 0.54 0.55 0.58 0.63 0.67 0.73 0.77 0.81 0.86 0.90 0.92 0.96 0.96 0.94 0.95 0.95 0.95 1.04
0.29 0.25 0.23 0.22 0.22 0.22 0.22 0.23 0.24 0.28 0.30 0.31 0.33 0.35 0.36 0.37 0.40 0.43 0.44 0.43 0.43 0.45 0.46 0.43 0.46 0.50 0.52 0.54 0.56 0.60 0.66 0.72 0.73 0.74 0.78 0.83 0.86 0.89 0.92 0.90 0.88 0.87 0.90 0.98
0.33 0.31 0.30 0.29 0.27 0.26 0.27 0.30 0.32 0.32 0.32 0.32 0.34 0.36 0.35 0.35 0.36 0.39 0.42 0.43 0.44 0.46 0.46 0.46 0.49 0.48 0.48 0.50 0.54 0.58 0.63 0.66 0.69 0.67 0.72 0.78 0.83 0.87 0.90 0.92 0.89 0.84 0.88 0.99
0.39 0.40 0.41 0.40 0.38 0.34 0.32 0.33 0.34 0.34 0.34 0.35 0.33 0.32 0.34 0.37 0.40 0.43 0.44 0.42 0.40 0.41 0.42 0.45 0.47 0.45 0.44 0.47 0.51 0.53 0.57 0.58 0.59 0.62 0.66 0.73 0.80 0.84 0.87 0.89 0.88 0.85 0.85 0.93
0.36 0.38 0.39 0.38 0.38 0.37 0.35 0.34 0.35 0.35 0.35 0.35 0.35 0.36 0.36 0.38 0.40 0.43 0.43 0.41 0.39 0.42 0.44 0.42 0.46 0.42 0.41 0.47 0.52 0.51 0.52 0.53 0.55 0.58 0.62 0.70 0.74 0.74 0.79 0.83 0.84 0.83 0.81 0.83
0.35 0.36 0.37 0.36 0.35 0.35 0.35 0.33 0.31 0.31 0.32 0.33 0.34 0.34 0.35 0.37 0.38 0.40 0.40 0.39 0.43 0.48 0.46 0.44 0.41 0.38 0.39 0.45 0.53 0.49 0.49 0.52 0.54 0.56 0.59 0.63 0.66 0.69 0.73 0.77 0.78 0.77 0.75 0.75
0.33 0.33 0.33 0.34 0.34 0.33 0.34 0.34 0.32 0.31 0.31 0.31 0.34 0.36 0.37 0.37 0.38 0.39 0.38 0.38 0.39 0.39 0.38 0.41 0.39 0.38 0.41 0.48 0.53 0.50 0.50 0.52 0.54 0.56 0.58 0.60 0.62 0.65 0.67 0.70 0.72 0.73 0.72 0.73
0.31 0.31 0.32 0.32 0.31 0.31 0.31 0.29 0.30 0.31 0.31 0.31 0.32 0.33 0.33 0.34 0.34 0.35 0.35 0.38 0.38 0.40 0.38 0.35 0.36 0.44 0.53 0.56 0.50 0.46 0.48 0.50 0.52 0.55 0.56 0.56 0.59 0.61 0.63 0.65 0.68 0.70 0.71 0.72
0.30 0.29 0.29 0.29 0.29 0.30 0.28 0.26 0.28 0.31 0.32 0.32 0.33 0.34 0.35 0.35 0.36 0.37 0.37 0.34 0.35 0.38 0.37 0.37 0.43 0.51 0.54 0.50 0.43 0.42 0.45 0.48 0.49 0.50 0.51 0.53 0.56 0.59 0.62 0.63 0.64 0.65 0.67 0.68
0.27 0.26 0.27 0.28 0.26 0.25 0.25 0.26 0.27 0.29 0.30 0.31 0.31 0.33 0.34 0.35 0.34 0.33 0.36 0.37 0.38 0.39 0.37 0.39 0.44 0.47 0.46 0.40 0.37 0.38 0.40 0.43 0.46 0.48 0.50 0.52 0.54 0.56 0.57 0.57 0.57 0.56 0.57 0.59
0.25 0.24 0.24 0.25 0.24 0.24 0.25 0.26 0.25 0.25 0.25 0.26 0.26 0.28 0.30 0.34 0.37 0.34 0.32 0.32 0.35 0.36 0.34 0.35 0.38 0.39 0.36 0.33 0.33 0.35 0.37 0.40 0.45 0.49 0.50 0.50 0.51 0.52 0.53 0.52 0.52 0.51 0.50 0.50
0.21 0.22 0.22 0.24 0.27 0.27 0.27 0.28 0.29 0.27 0.26 0.26 0.25 0.24 0.25 0.25 0.27 0.28 0.30 0.31 0.33 0.34 0.32 0.31 0.32 0.33 0.33 0.33 0.34 0.35 0.36 0.37 0.39 0.41 0.42 0.45 0.47 0.49 0.49 0.48 0.46 0.47 0.46 0.45
0.17 0.17 0.17 0.18 0.20 0.21 0.23 0.26 0.30 0.31 0.30 0.32 0.30 0.25 0.24 0.25 0.26 0.28 0.29 0.30 0.31 0.32 0.31 0.31 0.32 0.34 0.35 0.35 0.36 0.36 0.36 0.37 0.37 0.38 0.40 0.42 0.45 0.47 0.46 0.46 0.47 0.46 0.46 0.45

GEFSNGP_prec_meanprecacc_318.txt.gz
Total_Precipitation_Accumulation
0.74 0.61 0.67 0.70 0.59 0.70 1.12 1.18 1.19 0.80 0.67 0.74 0.74 0.74 0.69 0.68 0.69 0.73 0.79 0.81 0.82 0.85 0.90 0.93 0.90 0.91 1.00 1.13 1.24 1.30 1.45 1.61 1.66 1.70 1.77 1.78 1.70 1.66 1.67 1.70 1.78 1.79 1.79 1.86
0.76 0.51 0.50 0.55 0.48 0.54 0.69 0.75 0.83 0.67 0.70 0.62 0.62 0.60 0.60 0.64 0.65 0.67 0.76 0.79 0.78 0.79 0.86 0.89 0.88 0.88 0.90 0.98 1.11 1.17 1.28 1.41 1.51 1.60 1.73 1.88 1.90 1.84 1.77 1.71 1.73 1.81 1.80 1.83
0.84 0.46 0.63 0.78 0.67 0.65 0.70 0.72 0.79 0.86 0.78 0.58 0.58 0.63 0.73 0.73 0.68 0.67 0.72 0.78 0.75 0.77 0.83 0.83 0.82 0.87 0.91 0.90 1.01 1.11 1.14 1.19 1.30 1.48 1.57 1.69 1.89 1.99 1.91 1.85 1.87 1.90 1.93 1.96
1.03 0.74 0.96 0.73 0.49 0.51 0.60 0.69 0.72 0.73 0.61 0.53 0.58 0.65 0.69 0.72 0.74 0.69 0.67 0.71 0.73 0.77 0.81 0.78 0.77 0.82 0.84 0.84 0.91 1.05 1.13 1.19 1.30 1.40 1.48 1.63 1.81 1.97 2.05 2.02 2.07 2.07 2.04 2.05
1.28 0.99 0.63 0.39 0.33 0.50 0.64 0.68 0.56 0.53 0.48 0.41 0.40 0.45 0.54 0.60 0.65 0.71 0.71 0.70 0.72 0.79 0.84 0.78 0.77 0.85 0.85 0.83 0.88 0.97 1.07 1.15 1.22 1.35 1.44 1.55 1.73 1.88 1.98 2.03 2.09 2.12 2.01 1.92
1.44 1.17 0.73 0.47 0.27 0.31 0.55 0.81 0.44 0.41 0.44 0.42 0.39 0.56 0.62 0.60 0.64 0.62 0.65 0.68 0.72 0.76 0.77 0.76 0.83 0.88 0.91 0.92 0.92 1.02 1.08 1.11 1.14 1.24 1.36 1.45 1.58 1.73 1.86 1.94 1.96 1.93 1.85 1.75
1.25 1.15 0.64 0.43 0.26 0.26 0.76 0.98 0.47 0.43 0.47 0.48 0.56 0.66 0.64 0.58 0.56 0.56 0.57 0.64 0.72 0.79 0.84 0.86 0.93 0.97 0.98 0.98 1.00 1.03 1.06 1.10 1.11 1.16 1.28 1.37 1.40 1.47 1.59 1.66 1.67 1.65 1.57 1.56
0.93 1.17 0.79 0.43 0.37 0.69 0.89 0.57 0.48 0.46 0.50 0.57 0.58 0.52 0.52 0.54 0.55 0.53 0.55 0.61 0.70 0.80 0.87 0.89 0.93 0.97 0.96 1.00 1.06 1.04 1.04 1.07 1.11 1.16 1.20 1.26 1.26 1.27 1.30 1.35 1.42 1.47 1.40 1.37
0.86 0.95 0.81 0.65 0.77 0.81 0.71 0.62 0.54 0.53 0.53 0.57 0.61 0.61 0.59 0.61 0.62 0.59 0.59 0.64 0.67 0.72 0.79 0.83 0.92 1.00 1.03 1.03 1.04 1.05 1.06 1.07 1.08 1.09 1.13 1.19 1.22 1.21 1.24 1.28 1.33 1.42 1.34 1.30
0.71 0.68 0.61 0.57 0.56 0.54 0.55 0.59 0.57 0.56 0.57 0.56 0.59 0.62 0.62 0.64 0.66 0.66 0.66 0.64 0.64 0.64 0.69 0.78 0.86 0.93 0.98 0.94 0.94 0.97 1.03 1.05 1.05 1.02 1.06 1.12 1.17 1.20 1.25 1.33 1.32 1.32 1.28 1.23
0.62 0.54 0.44 0.41 0.43 0.44 0.42 0.40 0.41 0.43 0.46 0.51 0.52 0.57 0.59 0.62 0.63 0.65 0.65 0.65 0.62 0.62 0.65 0.72 0.77 0.84 0.92 0.93 0.88 0.90 0.94 0.96 0.98 0.99 1.04 1.13 1.18 1.24 1.31 1.35 1.42 1.43 1.31 1.22
0.71 0.55 0.54 0.50 0.44 0.40 0.38 0.38 0.39 0.40 0.41 0.43 0.46 0.54 0.54 0.56 0.58 0.59 0.61 0.61 0.58 0.57 0.60 0.64 0.66 0.74 0.81 0.87 0.89 0.90 0.91 0.92 0.96 0.96 1.00 1.08 1.15 1.23 1.36 1.39 1.39 1.40 1.39 1.30
0.60 0.49 0.45 0.43 0.39 0.36 0.36 0.38 0.38 0.38 0.41 0.41 0.41 0.41 0.44 0.47 0.49 0.49 0.49 0.51 0.56 0.59 0.60 0.60 0.60 0.66 0.73 0.77 0.80 0.85 0.91 0.94 0.96 0.97 1.00 1.05 1.07 1.10 1.20 1.26 1.25 1.27 1.32 1.30
0.38 0.34 0.34 0.32 0.35 0.33 0.31 0.32 0.31 0.31 0.34 0.36 0.38 0.37 0.35 0.36 0.37 0.40 0.46 0.52 0.54 0.53 0.54 0.55 0.53 0.56 0.61 0.64 0.70 0.76 0.83 0.91 0.91 0.94 1.00 1.01 1.04 1.06 1.05 1.07 1.12 1.15 1.20 1.23
0.28 0.30 0.35 0.30 0.25 0.25 0.25 0.23 0.23 0.26 0.28 0.32 0.34 0.36 0.35 0.35 0.40 0.46 0.48 0.46 0.45 0.44 0.46 0.45 0.46 0.53 0.55 0.57 0.62 0.68 0.73 0.80 0.83 0.87 0.93 0.97 0.99 1.03 1.02 1.01 1.02 1.02 1.02 1.11
0.30 0.26 0.24 0.22 0.23 0.23 0.23 0.23 0.25 0.28 0.30 0.31 0.33 0.36 0.37 0.37 0.40 0.44 0.45 0.44 0.44 0.46 0.47 0.45 0.47 0.51 0.53 0.56 0.59 0.64 0.70 0.77 0.79 0.81 0.85 0.90 0.93 0.96 0.98 0.96 0.94 0.93 0.96 1.04
0.34 0.32 0.31 0.30 0.28 0.26 0.28 0.31 0.33 0.33 0.33 0.32 0.34 0.37 0.36 0.36 0.37 0.39 0.43 0.44 0.45 0.47 0.47 0.47 0.50 0.49 0.50 0.52 0.56 0.60 0.66 0.70 0.73 0.73 0.78 0.85 0.90 0.94 0.97 0.98 0.95 0.91 0.94 1.06
0.40 0.42 0.42 0.42 0.39 0.35 0.33 0.34 0.35 0.34 0.35 0.35 0.33 0.33 0.35 0.37 0.41 0.43 0.45 0.43 0.41 0.41 0.42 0.46 0.48 0.46 0.45 0.48 0.52 0.55 0.59 0.62 0.63 0.66 0.71 0.79 0.87 0.90 0.93 0.95 0.94 0.92 0.91 0.99
0.37 0.39 0.40 0.39 0.39 0.38 0.36 0.35 0.36 0.35 0.35 0.35 0.36 0.36 0.37 0.39 0.40 0.43 0.44 0.41 0.40 0.42 0.44 0.43 0.46 0.42 0.42 0.48 0.54 0.53 0.54 0.56 0.57 0.61 0.66 0.75 0.80 0.80 0.84 0.89 0.90 0.89 0.87 0.89
0.36 0.37 0.37 0.37 0.36 0.35 0.35 0.34 0.31 0.31 0.33 0.34 0.35 0.35 0.36 0.37 0.39 0.41 0.40 0.40 0.44 0.49 0.46 0.45 0.42 0.38 0.40 0.46 0.54 0.51 0.51 0.54 0.56 0.59 0.62 0.66 0.70 0.74 0.78 0.82 0.84 0.83 0.81 0.81
0.34 0.33 0.33 0.34 0.34 0.33 0.34 0.34 0.33 0.32 0.31 0.31 0.34 0.37 0.37 0.38 0.38 0.39 0.39 0.39 0.39 0.39 0.39 0.41 0.39 0.39 0.42 0.49 0.54 0.51 0.51 0.53 0.56 0.58 0.60 0.62 0.65 0.68 0.71 0.74 0.77 0.77 0.77 0.77
0.32 0.31 0.32 0.32 0.31 0.31 0.31 0.30 0.31 0.32 0.31 0.31 0.32 0.33 0.34 0.34 0.35 0.35 0.36 0.39 0.39 0.41 0.39 0.35 0.37 0.46 0.54 0.57 0.50 0.47 0.49 0.52 0.54 0.56 0.58 0.58 0.61 0.64 0.66 0.69 0.72 0.74 0.75 0.76
0.31 0.29 0.29 0.29 0.29 0.30 0.28 0.27 0.28 0.31 0.32 0.33 0.33 0.34 0.35 0.36 0.36 0.38 0.37 0.35 0.36 0.39 0.37 0.37 0.45 0.52 0.55 0.50 0.44 0.43 0.46 0.49 0.51 0.52 0.53 0.55 0.58 0.61 0.64 0.66 0.67 0.69 0.72 0.72
0.27 0.27 0.28 0.28 0.27 0.25 0.25 0.26 0.28 0.29 0.31 0.31 0.32 0.33 0.35 0.36 0.34 0.34 0.37 0.37 0.38 0.40 0.37 0.40 0.45 0.48 0.47 0.40 0.38 0.39 0.41 0.44 0.48 0.50 0.51 0.54 0.56 0.58 0.59 0.60 0.60 0.59 0.60 0.62
0.25 0.25 0.25 0.25 0.25 0.25 0.26 0.26 0.25 0.26 0.26 0.27 0.27 0.28 0.30 0.34 0.37 0.35 0.32 0.33 0.35 0.36 0.34 0.35 0.38 0.39 0.37 0.34 0.34 0.36 0.38 0.41 0.47 0.51 0.52 0.52 0.53 0.54 0.55 0.54 0.54 0.54 0.53 0.53
0.22 0.22 0.23 0.25 0.27 0.27 0.27 0.28 0.30 0.28 0.27 0.27 0.26 0.25 0.25 0.26 0.27 0.29 0.30 0.32 0.34 0.35 0.33 0.32 0.32 0.34 0.33 0.34 0.34 0.35 0.37 0.38 0.40 0.42 0.44 0.46 0.49 0.51 0.50 0.49 0.48 0.49 0.49 0.48
0.18 0.18 0.18 0.19 0.20 0.22 0.24 0.27 0.30 0.31 0.31 0.32 0.31 0.26 0.25 0.25 0.27 0.28 0.29 0.30 0.31 0.32 0.31 0.31 0.33 0.34 0.35 0.36 0.36 0.36 0.37 0.37 0.38 0.39 0.41 0.43 0.46 0.48 0.47 0.47 0.48 0.48 0.48 0.47

GEFSNGP_prec_meanprecacc_324.txt.gz
Total_Precipitation_Accumulation
0.75 0.61 0.68 0.72 0.60 0.71 1.14 1.19 1.20 0.80 0.68 0.75 0.75 0.75 0.70 0.68 0.70 0.73 0.80 0.81 0.83 0.86 0.90 0.93 0.90 0.91 1.01 1.14 1.24 1.30 1.46 1.61 1.66 1.71 1.78 1.78 1.70 1.67 1.68 1.72 1.79 1.80 1.80 1.87
0.77 0.52 0.51 0.55 0.49 0.55 0.70 0.76 0.83 0.67 0.70 0.63 0.62 0.60 0.61 0.64 0.65 0.68 0.77 0.79 0.78 0.79 0.86 0.89 0.88 0.89 0.91 0.98 1.12 1.17 1.28 1.41 1.51 1.61 1.73 1.89 1.91 1.84 1.79 1.73 1.75 1.81 1.81 1.85
0.86 0.48 0.65 0.79 0.68 0.66 0.71 0.73 0.80 0.86 0.78 0.58 0.58 0.63 0.73 0.74 0.68 0.68 0.72 0.78 0.76 0.77 0.83 0.83 0.83 0.87 0.91 0.91 1.02 1.11 1.15 1.20 1.31 1.48 1.57 1.70 1.90 2.00 1.93 1.86 1.89 1.91 1.95 1.98
1.08 0.77 0.98 0.74 0.50 0.52 0.62 0.70 0.73 0.73 0.61 0.53 0.59 0.66 0.70 0.73 0.74 0.70 0.67 0.71 0.73 0.77 0.82 0.79 0.78 0.83 0.85 0.84 0.92 1.06 1.14 1.20 1.31 1.41 1.49 1.64 1.82 1.98 2.06 2.04 2.09 2.08 2.06 2.06
1.33 1.02 0.65 0.40 0.34 0.51 0.65 0.70 0.57 0.53 0.48 0.41 0.40 0.45 0.54 0.61 0.65 0.72 0.72 0.70 0.73 0.79 0.84 0.79 0.78 0.86 0.87 0.84 0.89 0.98 1.08 1.16 1.24 1.36 1.45 1.56 1.74 1.89 1.99 2.04 2.11 2.13 2.02 1.93
1.49 1.21 0.75 0.48 0.28 0.33 0.56 0.82 0.45 0.42 0.44 0.42 0.40 0.57 0.63 0.61 0.64 0.63 0.66 0.69 0.73 0.76 0.78 0.77 0.84 0.90 0.92 0.93 0.93 1.03 1.09 1.13 1.15 1.26 1.38 1.47 1.60 1.74 1.88 1.96 1.98 1.94 1.86 1.77
1.28 1.18 0.66 0.45 0.27 0.27 0.77 1.00 0.48 0.44 0.48 0.49 0.57 0.67 0.64 0.58 0.56 0.56 0.58 0.65 0.73 0.80 0.85 0.87 0.94 0.99 0.99 0.99 1.03 1.06 1.09 1.12 1.14 1.19 1.32 1.41 1.42 1.48 1.60 1.68 1.69 1.66 1.58 1.57
0.96 1.20 0.82 0.44 0.38 0.70 0.92 0.59 0.49 0.47 0.51 0.58 0.59 0.52 0.52 0.55 0.55 0.54 0.57 0.62 0.72 0.82 0.89 0.91 0.94 0.99 0.98 1.03 1.10 1.09 1.07 1.11 1.15 1.20 1.24 1.30 1.30 1.30 1.32 1.38 1.45 1.49 1.41 1.39
0.88 0.97 0.84 0.67 0.79 0.83 0.73 0.64 0.56 0.55 0.54 0.58 0.61 0.61 0.60 0.61 0.63 0.61 0.61 0.66 0.69 0.74 0.81 0.85 0.94 1.02 1.05 1.06 1.08 1.10 1.09 1.11 1.14 1.15 1.19 1.26 1.28 1.25 1.27 1.32 1.37 1.44 1.36 1.32
0.72 0.70 0.63 0.59 0.58 0.55 0.56 0.61 0.58 0.57 0.58 0.57 0.60 0.63 0.63 0.65 0.67 0.68 0.68 0.67 0.66 0.66 0.71 0.80 0.88 0.96 1.00 0.97 0.98 1.01 1.08 1.10 1.12 1.09 1.13 1.19 1.24 1.25 1.30 1.37 1.36 1.35 1.31 1.26
0.64 0.56 0.46 0.42 0.44 0.45 0.43 0.41 0.42 0.44 0.47 0.52 0.53 0.58 0.61 0.64 0.65 0.67 0.68 0.67 0.64 0.64 0.67 0.75 0.79 0.87 0.95 0.97 0.92 0.95 1.00 1.02 1.04 1.06 1.11 1.20 1.24 1.30 1.36 1.40 1.46 1.47 1.34 1.24
0.72 0.56 0.56 0.52 0.45 0.41 0.39 0.39 0.40 0.40 0.42 0.44 0.47 0.55 0.55 0.58 0.60 0.61 0.63 0.63 0.60 0.59 0.62 0.67 0.69 0.76 0.84 0.91 0.94 0.96 0.97 0.97 1.01 1.03 1.09 1.16 1.22 1.30 1.42 1.44 1.44 1.44 1.43 1.33
0.62 0.50 0.47 0.44 0.40 0.38 0.38 0.40 0.39 0.39 0.42 0.42 0.42 0.42 0.45 0.49 0.51 0.50 0.51 0.53 0.58 0.61 0.62 0.62 0.62 0.68 0.75 0.80 0.85 0.90 0.96 0.99 1.02 1.03 1.07 1.13 1.13 1.16 1.27 1.32 1.30 1.32 1.36 1.34
0.39 0.35 0.35 0.33 0.36 0.34 0.32 0.33 0.32 0.32 0.35 0.37 0.40 0.38 0.36 0.37 0.39 0.41 0.47 0.54 0.56 0.55 0.56 0.57 0.55 0.58 0.63 0.67 0.74 0.81 0.87 0.96 0.96 1.00 1.06 1.08 1.11 1.12 1.11 1.13 1.18 1.21 1.25 1.28
0.28 0.31 0.36 0.31 0.26 0.26 0.26 0.24 0.24 0.27 0.29 0.33 0.35 0.37 0.36 0.36 0.41 0.47 0.49 0.48 0.47 0.46 0.48 0.47 0.48 0.54 0.56 0.59 0.65 0.71 0.77 0.84 0.88 0.91 0.97 1.03 1.05 1.09 1.09 1.07 1.07 1.08 1.08 1.17
0.30 0.27 0.25 0.23 0.23 0.23 0.24 0.24 0.25 0.29 0.30 0.32 0.34 0.36 0.37 0.38 0.41 0.45 0.46 0.45 0.46 0.48 0.49 0.46 0.48 0.52 0.54 0.57 0.60 0.66 0.73 0.82 0.83 0.85 0.89 0.94 0.97 1.01 1.04 1.02 0.99 0.98 1.01 1.09
0.34 0.33 0.31 0.30 0.28 0.27 0.29 0.32 0.33 0.34 0.33 0.33 0.35 0.37 0.37 0.36 0.37 0.40 0.43 0.45 0.46 0.49 0.49 0.49 0.52 0.50 0.51 0.53 0.57 0.62 0.68 0.74 0.78 0.78 0.83 0.90 0.94 0.99 1.03 1.03 1.00 0.96 0.99 1.11
0.41 0.43 0.43 0.43 0.40 0.36 0.34 0.34 0.36 0.35 0.35 0.36 0.34 0.33 0.35 0.38 0.42 0.44 0.45 0.44 0.42 0.42 0.44 0.47 0.49 0.47 0.46 0.49 0.54 0.57 0.61 0.65 0.66 0.71 0.76 0.84 0.92 0.95 0.98 1.00 0.99 0.96 0.96 1.04
0.37 0.40 0.41 0.40 0.41 0.39 0.37 0.36 0.37 0.36 0.36 0.36 0.36 0.36 0.37 0.39 0.41 0.43 0.44 0.42 0.40 0.43 0.45 0.44 0.48 0.43 0.43 0.49 0.55 0.54 0.56 0.58 0.60 0.65 0.70 0.80 0.85 0.85 0.89 0.94 0.95 0.94 0.93 0.94
0.37 0.38 0.38 0.38 0.37 0.36 0.36 0.34 0.32 0.32 0.33 0.34 0.35 0.35 0.36 0.38 0.39 0.41 0.40 0.40 0.45 0.50 0.48 0.46 0.43 0.40 0.41 0.47 0.55 0.52 0.53 0.56 0.58 0.61 0.65 0.70 0.75 0.79 0.84 0.89 0.90 0.89 0.87 0.87
0.34 0.34 0.34 0.35 0.35 0.34 0.35 0.35 0.33 0.32 0.31 0.32 0.35 0.37 0.37 0.38 0.39 0.39 0.39 0.39 0.39 0.40 0.40 0.42 0.40 0.40 0.44 0.51 0.56 0.53 0.52 0.55 0.58 0.60 0.63 0.66 0.69 0.73 0.77 0.80 0.83 0.84 0.84 0.84
0.32 0.32 0.33 0.32 0.31 0.32 0.31 0.30 0.31 0.32 0.31 0.31 0.32 0.34 0.34 0.34 0.35 0.35 0.36 0.39 0.39 0.42 0.40 0.36 0.38 0.47 0.56 0.59 0.52 0.48 0.50 0.54 0.56 0.58 0.60 0.61 0.65 0.68 0.71 0.74 0.78 0.80 0.81 0.82
0.31 0.30 0.30 0.29 0.29 0.30 0.28 0.27 0.28 0.31 0.33 0.33 0.34 0.34 0.35 0.36 0.36 0.38 0.38 0.35 0.36 0.40 0.38 0.38 0.46 0.54 0.57 0.52 0.45 0.44 0.47 0.51 0.53 0.54 0.56 0.58 0.61 0.65 0.69 0.70 0.72 0.74 0.76 0.77
0.28 0.27 0.28 0.29 0.27 0.26 0.26 0.27 0.29 0.30 0.32 0.32 0.33 0.34 0.35 0.36 0.35 0.34 0.37 0.38 0.39 0.41 0.38 0.40 0.46 0.50 0.48 0.41 0.39 0.40 0.43 0.47 0.50 0.53 0.54 0.56 0.59 0.61 0.63 0.63 0.64 0.63 0.65 0.66
0.26 0.26 0.26 0.26 0.25 0.25 0.27 0.27 0.26 0.27 0.27 0.28 0.28 0.29 0.31 0.35 0.38 0.35 0.33 0.33 0.35 0.37 0.35 0.36 0.39 0.40 0.37 0.35 0.35 0.37 0.39 0.43 0.49 0.53 0.54 0.55 0.55 0.57 0.58 0.57 0.58 0.58 0.57 0.56
0.22 0.23 0.24 0.26 0.28 0.28 0.28 0.29 0.31 0.29 0.28 0.28 0.27 0.25 0.25 0.26 0.28 0.29 0.31 0.32 0.34 0.35 0.33 0.32 0.33 0.34 0.34 0.34 0.35 0.36 0.38 0.39 0.42 0.44 0.46 0.49 0.51 0.53 0.53 0.52 0.51 0.51 0.51 0.51
0.19 0.19 0.19 0.19 0.21 0.23 0.25 0.27 0.31 0.32 0.32 0.33 0.32 0.26 0.25 0.26 0.27 0.29 0.30 0.30 0.31 0.32 0.31 0.32 0.33 0.34 0.35 0.36 0.37 0.37 0.37 0.38 0.39 0.40 0.42 0.45 0.48 0.50 0.50 0.50 0.50 0.50 0.50 0.49

GEFSNGP_prec_meanprecacc_330.txt.gz
Total_Precipitation_Accumulation
0.76 0.62 0.68 0.72 0.61 0.72 1.15 1.20 1.21 0.81 0.68 0.75 0.75 0.75 0.71 0.69 0.70 0.74 0.80 0.82 0.83 0.86 0.90 0.93 0.90 0.91 1.01 1.14 1.24 1.31 1.46 1.62 1.67 1.72 1.78 1.79 1.70 1.67 1.68 1.72 1.79 1.80 1.80 1.88
0.78 0.52 0.51 0.56 0.49 0.56 0.71 0.76 0.84 0.68 0.71 0.64 0.63 0.61 0.61 0.65 0.65 0.68 0.77 0.80 0.78 0.79 0.86 0.89 0.88 0.89 0.91 0.98 1.12 1.18 1.29 1.42 1.52 1.62 1.74 1.89 1.91 1.85 1.79 1.73 1.75 1.82 1.81 1.85
0.88 0.48 0.66 0.80 0.68 0.67 0.71 0.74 0.80 0.87 0.79 0.59 0.59 0.64 0.74 0.74 0.69 0.68 0.72 0.78 0.76 0.77 0.83 0.83 0.83 0.88 0.91 0.91 1.02 1.12 1.15 1.20 1.32 1.49 1.58 1.71 1.91 2.01 1.93 1.87 1.89 1.92 1.95 1.98
1.11 0.78 1.00 0.75 0.51 0.53 0.62 0.71 0.74 0.74 0.62 0.54 0.59 0.66 0.70 0.73 0.75 0.70 0.68 0.71 0.74 0.77 0.82 0.79 0.78 0.83 0.85 0.85 0.92 1.07 1.14 1.21 1.32 1.42 1.50 1.64 1.83 1.99 2.06 2.04 2.09 2.08 2.06 2.07
1.37 1.05 0.67 0.41 0.34 0.52 0.66 0.70 0.58 0.54 0.49 0.42 0.41 0.46 0.55 0.62 0.67 0.73 0.73 0.71 0.74 0.79 0.84 0.80 0.79 0.87 0.88 0.85 0.90 1.00 1.09 1.17 1.25 1.37 1.46 1.57 1.74 1.89 1.99 2.04 2.11 2.14 2.02 1.94
1.54 1.26 0.77 0.49 0.28 0.34 0.57 0.84 0.46 0.42 0.45 0.43 0.41 0.58 0.64 0.61 0.65 0.64 0.68 0.71 0.75 0.78 0.79 0.78 0.85 0.91 0.94 0.95 0.95 1.05 1.10 1.14 1.16 1.27 1.39 1.48 1.60 1.75 1.88 1.96 1.98 1.94 1.87 1.77
1.32 1.22 0.68 0.45 0.28 0.28 0.79 1.02 0.49 0.45 0.49 0.51 0.58 0.68 0.65 0.59 0.57 0.58 0.60 0.66 0.75 0.82 0.86 0.89 0.96 1.01 1.02 1.02 1.05 1.08 1.11 1.14 1.16 1.21 1.33 1.42 1.43 1.49 1.60 1.68 1.69 1.67 1.59 1.58
0.98 1.24 0.84 0.45 0.39 0.72 0.94 0.60 0.50 0.49 0.52 0.60 0.60 0.53 0.54 0.56 0.56 0.55 0.58 0.64 0.73 0.83 0.90 0.93 0.97 1.02 1.01 1.05 1.12 1.11 1.10 1.13 1.18 1.23 1.26 1.32 1.31 1.31 1.33 1.39 1.46 1.50 1.43 1.40
0.89 0.99 0.86 0.69 0.81 0.85 0.75 0.66 0.57 0.57 0.56 0.60 0.63 0.63 0.61 0.63 0.64 0.62 0.62 0.67 0.70 0.76 0.82 0.87 0.97 1.05 1.08 1.08 1.10 1.12 1.12 1.14 1.16 1.17 1.22 1.28 1.30 1.27 1.30 1.34 1.39 1.46 1.38 1.34
0.73 0.72 0.65 0.61 0.60 0.57 0.58 0.62 0.60 0.59 0.59 0.59 0.62 0.64 0.64 0.67 0.68 0.69 0.69 0.68 0.68 0.68 0.72 0.82 0.90 0.98 1.03 1.00 1.00 1.04 1.10 1.13 1.15 1.12 1.15 1.21 1.26 1.28 1.33 1.40 1.39 1.38 1.33 1.28
0.65 0.57 0.47 0.44 0.45 0.46 0.44 0.42 0.44 0.45 0.48 0.54 0.55 0.59 0.62 0.65 0.66 0.68 0.69 0.69 0.66 0.66 0.69 0.77 0.82 0.89 0.98 0.99 0.95 0.98 1.02 1.05 1.07 1.10 1.15 1.23 1.27 1.33 1.39 1.43 1.49 1.50 1.37 1.27
0.74 0.57 0.57 0.53 0.46 0.42 0.40 0.40 0.41 0.41 0.43 0.45 0.49 0.57 0.57 0.59 0.61 0.62 0.64 0.64 0.62 0.61 0.64 0.68 0.71 0.79 0.87 0.94 0.97 0.99 0.99 1.00 1.04 1.07 1.14 1.20 1.25 1.34 1.44 1.46 1.46 1.47 1.45 1.36
0.63 0.51 0.48 0.45 0.41 0.38 0.39 0.40 0.40 0.40 0.43 0.43 0.43 0.44 0.46 0.50 0.52 0.52 0.52 0.55 0.60 0.62 0.64 0.64 0.64 0.70 0.78 0.83 0.88 0.93 0.98 1.02 1.05 1.08 1.13 1.19 1.17 1.20 1.31 1.35 1.34 1.36 1.40 1.37
0.40 0.36 0.35 0.33 0.36 0.34 0.33 0.34 0.33 0.33 0.36 0.38 0.41 0.39 0.37 0.38 0.40 0.42 0.49 0.55 0.57 0.56 0.58 0.58 0.56 0.59 0.65 0.70 0.77 0.84 0.90 0.99 1.00 1.04 1.11 1.15 1.17 1.17 1.15 1.17 1.22 1.26 1.30 1.31
0.29 0.31 0.37 0.32 0.27 0.26 0.27 0.25 0.24 0.28 0.30 0.34 0.36 0.38 0.37 0.37 0.42 0.48 0.50 0.50 0.48 0.47 0.49 0.48 0.49 0.55 0.58 0.61 0.68 0.75 0.80 0.88 0.92 0.95 1.02 1.08 1.11 1.15 1.14 1.11 1.11 1.12 1.13 1.22
0.31 0.27 0.26 0.24 0.24 0.24 0.24 0.25 0.26 0.30 0.31 0.33 0.35 0.37 0.38 0.39 0.42 0.46 0.47 0.47 0.48 0.50 0.50 0.48 0.49 0.53 0.55 0.59 0.63 0.69 0.76 0.85 0.87 0.89 0.93 0.98 1.02 1.06 1.10 1.07 1.04 1.02 1.06 1.14
0.35 0.33 0.32 0.31 0.29 0.28 0.30 0.33 0.35 0.35 0.34 0.33 0.36 0.38 0.37 0.37 0.38 0.41 0.45 0.46 0.48 0.50 0.50 0.50 0.53 0.51 0.52 0.55 0.59 0.65 0.72 0.77 0.81 0.81 0.86 0.93 0.98 1.03 1.07 1.08 1.05 1.01 1.04 1.16
0.42 0.44 0.44 0.44 0.41 0.37 0.35 0.35 0.37 0.36 0.36 0.37 0.35 0.34 0.36 0.38 0.42 0.45 0.46 0.45 0.43 0.44 0.45 0.48 0.51 0.48 0.47 0.50 0.55 0.59 0.65 0.68 0.71 0.76 0.80 0.88 0.96 0.99 1.02 1.04 1.03 1.01 1.01 1.10
0.38 0.41 0.42 0.42 0.42 0.40 0.38 0.37 0.38 0.37 0.37 0.37 0.37 0.37 0.38 0.40 0.42 0.44 0.45 0.43 0.41 0.45 0.46 0.45 0.49 0.44 0.43 0.50 0.56 0.56 0.59 0.61 0.65 0.70 0.75 0.84 0.89 0.88 0.93 0.98 1.00 0.99 0.98 1.00
0.37 0.38 0.39 0.39 0.38 0.37 0.37 0.36 0.33 0.33 0.34 0.35 0.35 0.35 0.36 0.38 0.40 0.41 0.41 0.41 0.46 0.51 0.49 0.48 0.44 0.40 0.42 0.48 0.57 0.54 0.54 0.58 0.62 0.66 0.70 0.75 0.79 0.83 0.88 0.94 0.96 0.95 0.93 0.93
0.35 0.35 0.35 0.36 0.36 0.34 0.36 0.36 0.34 0.33 0.32 0.32 0.35 0.37 0.38 0.39 0.39 0.40 0.40 0.40 0.40 0.42 0.41 0.43 0.41 0.41 0.45 0.53 0.57 0.54 0.54 0.57 0.61 0.65 0.67 0.71 0.74 0.78 0.82 0.86 0.89 0.91 0.90 0.90
0.33 0.33 0.34 0.33 0.32 0.33 0.32 0.31 0.32 0.33 0.31 0.31 0.33 0.34 0.34 0.35 0.35 0.35 0.37 0.40 0.40 0.43 0.41 0.37 0.40 0.49 0.59 0.61 0.53 0.50 0.53 0.56 0.59 0.62 0.64 0.66 0.69 0.73 0.77 0.79 0.84 0.87 0.89 0.89
0.33 0.31 0.31 0.31 0.31 0.32 0.29 0.28 0.29 0.32 0.34 0.34 0.34 0.35 0.36 0.37 0.37 0.39 0.39 0.36 0.38 0.41 0.39 0.40 0.48 0.56 0.59 0.54 0.47 0.46 0.49 0.53 0.56 0.57 0.59 0.62 0.65 0.69 0.73 0.75 0.78 0.80 0.83 0.83
0.30 0.29 0.30 0.30 0.28 0.26 0.27 0.28 0.29 0.31 0.32 0.33 0.33 0.35 0.36 0.37 0.35 0.35 0.38 0.39 0.40 0.42 0.40 0.42 0.48 0.52 0.50 0.43 0.41 0.42 0.44 0.48 0.52 0.55 0.57 0.60 0.62 0.64 0.66 0.67 0.68 0.68 0.69 0.71
0.27 0.27 0.27 0.27 0.26 0.26 0.28 0.28 0.27 0.27 0.28 0.28 0.28 0.29 0.32 0.35 0.39 0.36 0.34 0.34 0.36 0.38 0.36 0.37 0.41 0.42 0.39 0.36 0.36 0.38 0.41 0.45 0.52 0.56 0.57 0.57 0.58 0.59 0.60 0.59 0.60 0.61 0.60 0.60
0.23 0.24 0.25 0.27 0.29 0.29 0.29 0.30 0.31 0.29 0.28 0.28 0.27 0.26 0.26 0.27 0.28 0.30 0.31 0.32 0.34 0.36 0.34 0.33 0.34 0.35 0.35 0.36 0.37 0.38 0.40 0.41 0.44 0.46 0.48 0.50 0.52 0.54 0.54 0.53 0.53 0.54 0.54 0.53
0.19 0.19 0.19 0.20 0.21 0.23 0.25 0.28 0.32 0.33 0.32 0.34 0.32 0.27 0.26 0.26 0.27 0.29 0.30 0.30 0.31 0.32 0.32 0.32 0.34 0.36 0.37 0.38 0.39 0.39 0.39 0.40 0.41 0.42 0.44 0.47 0.49 0.51 0.51 0.52 0.53 0.53 0.53 0.52

GEFSNGP_prec_meanprecacc_336.txt.gz
Total_Precipitation_Accumulation
0.77 0.62 0.69 0.73 0.61 0.72 1.16 1.22 1.22 0.82 0.69 0.76 0.76 0.76 0.71 0.70 0.71 0.74 0.81 0.82 0.83 0.86 0.90 0.93 0.90 0.91 1.01 1.14 1.24 1.31 1.46 1.62 1.68 1.72 1.79 1.80 1.72 1.69 1.71 1.73 1.80 1.81 1.81 1.89
0.79 0.52 0.52 0.56 0.49 0.56 0.71 0.77 0.85 0.69 0.72 0.65 0.64 0.61 0.62 0.65 0.66 0.68 0.77 0.80 0.79 0.80 0.86 0.89 0.88 0.89 0.91 0.98 1.12 1.18 1.29 1.43 1.52 1.62 1.75 1.90 1.92 1.86 1.80 1.74 1.76 1.83 1.82 1.86
0.89 0.49 0.67 0.82 0.69 0.67 0.72 0.74 0.81 0.88 0.80 0.60 0.59 0.64 0.74 0.75 0.69 0.68 0.73 0.78 0.76 0.77 0.84 0.83 0.83 0.88 0.92 0.91 1.02 1.12 1.16 1.21 1.32 1.50 1.59 1.71 1.91 2.01 1.94 1.88 1.91 1.93 1.96 1.99
1.13 0.80 1.03 0.76 0.51 0.54 0.63 0.72 0.75 0.75 0.62 0.54 0.60 0.67 0.71 0.74 0.75 0.71 0.68 0.72 0.74 0.78 0.82 0.79 0.78 0.83 0.86 0.85 0.93 1.07 1.15 1.21 1.33 1.42 1.50 1.65 1.83 1.99 2.07 2.05 2.10 2.09 2.07 2.07
1.40 1.07 0.68 0.41 0.35 0.53 0.67 0.71 0.58 0.55 0.49 0.42 0.42 0.47 0.56 0.62 0.67 0.73 0.73 0.72 0.74 0.80 0.85 0.80 0.79 0.88 0.88 0.86 0.91 1.00 1.10 1.17 1.25 1.37 1.46 1.57 1.74 1.90 2.00 2.05 2.12 2.14 2.03 1.94
1.57 1.29 0.79 0.50 0.29 0.35 0.59 0.85 0.47 0.43 0.46 0.44 0.41 0.59 0.64 0.62 0.66 0.65 0.69 0.72 0.76 0.79 0.79 0.78 0.86 0.92 0.95 0.96 0.96 1.06 1.11 1.14 1.16 1.27 1.39 1.48 1.60 1.75 1.89 1.97 1.99 1.95 1.87 1.78
1.34 1.24 0.69 0.46 0.28 0.28 0.80 1.03 0.50 0.46 0.50 0.51 0.59 0.69 0.66 0.60 0.58 0.59 0.61 0.68 0.76 0.83 0.87 0.90 0.97 1.02 1.03 1.03 1.06 1.09 1.12 1.15 1.16 1.21 1.34 1.42 1.43 1.49 1.61 1.69 1.70 1.68 1.59 1.58
1.00 1.26 0.85 0.46 0.39 0.73 0.95 0.61 0.51 0.49 0.53 0.60 0.61 0.54 0.55 0.57 0.58 0.56 0.59 0.65 0.74 0.85 0.92 0.94 0.98 1.03 1.02 1.07 1.14 1.12 1.11 1.14 1.19 1.23 1.27 1.32 1.32 1.32 1.34 1.39 1.47 1.50 1.43 1.41
0.91 1.01 0.87 0.70 0.82 0.86 0.75 0.66 0.58 0.58 0.56 0.61 0.65 0.64 0.62 0.64 0.65 0.63 0.64 0.68 0.71 0.77 0.83 0.88 0.98 1.07 1.10 1.10 1.12 1.14 1.14 1.16 1.18 1.19 1.23 1.29 1.31 1.28 1.30 1.34 1.40 1.47 1.38 1.34
0.74 0.73 0.66 0.62 0.60 0.58 0.58 0.63 0.61 0.60 0.60 0.60 0.63 0.66 0.66 0.68 0.70 0.71 0.71 0.70 0.70 0.69 0.74 0.83 0.91 1.00 1.05 1.01 1.02 1.05 1.12 1.15 1.16 1.14 1.17 1.22 1.27 1.29 1.33 1.41 1.40 1.39 1.33 1.28
0.66 0.58 0.48 0.44 0.46 0.47 0.45 0.43 0.44 0.46 0.49 0.55 0.56 0.61 0.64 0.67 0.68 0.70 0.71 0.71 0.68 0.68 0.71 0.78 0.83 0.90 0.99 1.01 0.97 1.00 1.04 1.07 1.09 1.11 1.16 1.24 1.28 1.34 1.40 1.43 1.50 1.51 1.38 1.27
0.75 0.58 0.58 0.54 0.47 0.43 0.40 0.41 0.42 0.42 0.44 0.46 0.50 0.58 0.58 0.61 0.62 0.63 0.66 0.67 0.64 0.63 0.66 0.70 0.72 0.80 0.89 0.95 0.99 1.01 1.02 1.02 1.06 1.09 1.15 1.22 1.27 1.35 1.45 1.47 1.47 1.48 1.46 1.37
0.64 0.52 0.48 0.45 0.41 0.39 0.39 0.41 0.41 0.41 0.44 0.45 0.44 0.45 0.48 0.52 0.53 0.53 0.54 0.56 0.61 0.64 0.66 0.65 0.65 0.71 0.79 0.84 0.89 0.95 1.00 1.04 1.07 1.09 1.15 1.20 1.19 1.21 1.32 1.36 1.35 1.37 1.40 1.38
0.41 0.37 0.36 0.34 0.37 0.35 0.34 0.35 0.33 0.34 0.37 0.39 0.42 0.40 0.39 0.39 0.41 0.44 0.50 0.57 0.59 0.58 0.59 0.59 0.57 0.60 0.66 0.71 0.78 0.85 0.92 1.00 1.01 1.06 1.13 1.16 1.19 1.18 1.16 1.19 1.24 1.27 1.31 1.32
0.29 0.32 0.38 0.32 0.27 0.27 0.27 0.26 0.25 0.29 0.31 0.35 0.37 0.39 0.39 0.39 0.44 0.50 0.52 0.51 0.50 0.49 0.50 0.49 0.50 0.56 0.59 0.63 0.69 0.76 0.82 0.89 0.93 0.97 1.03 1.10 1.13 1.17 1.16 1.13 1.13 1.13 1.14 1.23
0.31 0.27 0.26 0.24 0.25 0.25 0.25 0.26 0.27 0.31 0.32 0.34 0.36 0.38 0.40 0.40 0.43 0.47 0.48 0.49 0.49 0.51 0.51 0.49 0.51 0.54 0.56 0.60 0.65 0.71 0.78 0.86 0.88 0.90 0.94 1.00 1.04 1.08 1.12 1.09 1.06 1.04 1.07 1.15
0.36 0.34 0.32 0.31 0.29 0.29 0.31 0.34 0.36 0.36 0.35 0.34 0.36 0.39 0.38 0.38 0.39 0.42 0.46 0.48 0.49 0.52 0.51 0.51 0.54 0.52 0.53 0.56 0.62 0.67 0.73 0.79 0.83 0.83 0.88 0.95 1.00 1.05 1.10 1.10 1.07 1.02 1.06 1.18
0.43 0.45 0.45 0.45 0.42 0.39 0.37 0.37 0.38 0.37 0.37 0.37 0.35 0.34 0.37 0.39 0.44 0.46 0.48 0.46 0.44 0.45 0.46 0.49 0.52 0.50 0.49 0.52 0.58 0.62 0.67 0.71 0.73 0.78 0.82 0.90 0.98 1.02 1.05 1.06 1.05 1.02 1.03 1.12
0.39 0.42 0.43 0.43 0.43 0.42 0.40 0.38 0.39 0.38 0.37 0.37 0.38 0.38 0.39 0.41 0.43 0.45 0.46 0.44 0.43 0.46 0.48 0.46 0.50 0.45 0.45 0.51 0.59 0.59 0.62 0.64 0.67 0.72 0.77 0.87 0.92 0.91 0.95 1.00 1.02 1.01 1.00 1.02
0.38 0.39 0.40 0.40 0.39 0.39 0.39 0.37 0.35 0.34 0.35 0.36 0.36 0.36 0.37 0.39 0.40 0.42 0.42 0.42 0.47 0.53 0.51 0.49 0.46 0.42 0.43 0.49 0.59 0.57 0.57 0.61 0.65 0.68 0.73 0.77 0.83 0.87 0.91 0.96 0.98 0.98 0.95 0.95
0.36 0.35 0.35 0.37 0.37 0.36 0.37 0.38 0.36 0.34 0.33 0.33 0.36 0.39 0.39 0.39 0.40 0.41 0.40 0.41 0.41 0.43 0.43 0.45 0.43 0.43 0.47 0.55 0.61 0.58 0.58 0.60 0.63 0.67 0.70 0.74 0.77 0.81 0.85 0.88 0.92 0.93 0.93 0.93
0.34 0.33 0.34 0.34 0.34 0.34 0.34 0.32 0.33 0.34 0.33 0.32 0.34 0.35 0.35 0.35 0.36 0.36 0.37 0.41 0.41 0.44 0.42 0.38 0.41 0.51 0.62 0.65 0.56 0.54 0.56 0.59 0.61 0.64 0.67 0.69 0.73 0.76 0.79 0.82 0.87 0.90 0.91 0.92
0.33 0.32 0.32 0.32 0.32 0.33 0.30 0.29 0.30 0.33 0.34 0.35 0.35 0.36 0.36 0.37 0.37 0.39 0.39 0.37 0.38 0.42 0.40 0.41 0.50 0.59 0.63 0.57 0.49 0.48 0.52 0.55 0.58 0.59 0.62 0.65 0.68 0.72 0.76 0.78 0.80 0.83 0.86 0.86
0.31 0.30 0.31 0.31 0.29 0.27 0.28 0.29 0.31 0.32 0.33 0.33 0.34 0.35 0.36 0.37 0.36 0.35 0.39 0.40 0.41 0.43 0.41 0.44 0.50 0.54 0.53 0.46 0.43 0.43 0.46 0.50 0.54 0.57 0.59 0.62 0.64 0.67 0.69 0.70 0.71 0.70 0.72 0.74
0.29 0.29 0.28 0.28 0.27 0.27 0.29 0.29 0.28 0.28 0.28 0.29 0.29 0.30 0.32 0.36 0.40 0.37 0.34 0.35 0.37 0.39 0.37 0.38 0.42 0.44 0.41 0.38 0.38 0.40 0.43 0.47 0.53 0.58 0.59 0.59 0.60 0.61 0.62 0.62 0.63 0.63 0.63 0.62
0.25 0.25 0.26 0.28 0.30 0.30 0.30 0.30 0.32 0.30 0.29 0.29 0.28 0.26 0.27 0.27 0.29 0.30 0.32 0.33 0.35 0.37 0.35 0.34 0.35 0.37 0.38 0.38 0.39 0.40 0.41 0.43 0.46 0.48 0.50 0.52 0.54 0.56 0.56 0.56 0.55 0.56 0.56 0.56
0.20 0.20 0.20 0.21 0.23 0.24 0.26 0.29 0.32 0.34 0.33 0.35 0.33 0.28 0.26 0.27 0.28 0.30 0.31 0.31 0.32 0.33 0.33 0.34 0.35 0.37 0.39 0.40 0.41 0.41 0.41 0.42 0.43 0.44 0.46 0.48 0.51 0.53 0.53 0.53 0.54 0.54 0.54 0.53

GEFSNGP_prec_meanprecacc_342.txt.gz
Total_Precipitation_Accumulation
0.77 0.62 0.69 0.73 0.62 0.73 1.18 1.24 1.24 0.84 0.70 0.78 0.78 0.78 0.73 0.71 0.72 0.75 0.82 0.83 0.84 0.86 0.90 0.94 0.90 0.91 1.01 1.14 1.25 1.32 1.48 1.64 1.70 1.74 1.80 1.81 1.73 1.70 1.72 1.75 1.83 1.84 1.84 1.92
0.79 0.52 0.52 0.57 0.50 0.56 0.72 0.78 0.87 0.70 0.74 0.67 0.66 0.64 0.63 0.66 0.67 0.69 0.78 0.81 0.79 0.80 0.87 0.90 0.89 0.89 0.92 0.99 1.13 1.19 1.30 1.45 1.54 1.64 1.77 1.92 1.94 1.87 1.81 1.76 1.78 1.85 1.85 1.89
0.90 0.49 0.68 0.83 0.70 0.68 0.73 0.76 0.83 0.90 0.82 0.61 0.61 0.66 0.76 0.77 0.71 0.69 0.74 0.79 0.77 0.78 0.84 0.84 0.84 0.89 0.93 0.92 1.03 1.13 1.17 1.22 1.34 1.51 1.61 1.74 1.93 2.03 1.95 1.89 1.92 1.94 1.97 2.00
1.15 0.81 1.04 0.77 0.52 0.55 0.64 0.73 0.76 0.77 0.64 0.56 0.62 0.69 0.72 0.74 0.76 0.72 0.69 0.73 0.75 0.78 0.83 0.80 0.79 0.84 0.86 0.86 0.93 1.08 1.16 1.22 1.33 1.43 1.52 1.66 1.85 2.01 2.08 2.06 2.11 2.10 2.08 2.08
1.43 1.09 0.69 0.42 0.35 0.54 0.68 0.72 0.59 0.56 0.50 0.43 0.43 0.49 0.57 0.63 0.68 0.74 0.75 0.73 0.75 0.81 0.86 0.81 0.80 0.88 0.89 0.86 0.92 1.01 1.11 1.18 1.26 1.38 1.47 1.58 1.75 1.90 2.00 2.06 2.12 2.15 2.03 1.95
1.60 1.31 0.80 0.51 0.29 0.35 0.59 0.86 0.47 0.43 0.46 0.44 0.42 0.61 0.65 0.63 0.67 0.66 0.69 0.73 0.76 0.79 0.80 0.79 0.86 0.93 0.95 0.97 0.97 1.06 1.12 1.15 1.17 1.28 1.40 1.49 1.61 1.75 1.89 1.97 1.99 1.95 1.88 1.78
1.36 1.25 0.70 0.46 0.28 0.29 0.81 1.04 0.50 0.46 0.50 0.52 0.60 0.70 0.67 0.61 0.59 0.60 0.62 0.68 0.76 0.84 0.88 0.90 0.98 1.02 1.03 1.03 1.07 1.10 1.13 1.16 1.17 1.22 1.34 1.43 1.44 1.50 1.61 1.69 1.70 1.68 1.60 1.59
1.02 1.28 0.86 0.46 0.40 0.73 0.96 0.61 0.51 0.49 0.53 0.61 0.62 0.55 0.55 0.58 0.58 0.57 0.60 0.66 0.75 0.85 0.92 0.95 0.99 1.03 1.03 1.07 1.15 1.13 1.12 1.15 1.20 1.24 1.28 1.33 1.33 1.32 1.34 1.40 1.47 1.51 1.43 1.41
0.92 1.02 0.88 0.70 0.82 0.87 0.76 0.67 0.58 0.58 0.57 0.61 0.65 0.65 0.63 0.65 0.66 0.64 0.64 0.69 0.72 0.78 0.84 0.89 0.99 1.08 1.11 1.11 1.13 1.15 1.15 1.17 1.19 1.20 1.24 1.29 1.31 1.29 1.30 1.35 1.40 1.47 1.39 1.35
0.75 0.74 0.67 0.62 0.61 0.58 0.59 0.64 0.62 0.60 0.61 0.60 0.64 0.66 0.67 0.69 0.71 0.72 0.72 0.71 0.71 0.70 0.75 0.84 0.93 1.01 1.06 1.03 1.03 1.06 1.13 1.16 1.18 1.15 1.19 1.24 1.28 1.29 1.34 1.41 1.40 1.39 1.34 1.29
0.67 0.59 0.48 0.45 0.46 0.47 0.45 0.43 0.45 0.46 0.49 0.56 0.57 0.62 0.65 0.68 0.69 0.71 0.72 0.72 0.69 0.69 0.72 0.80 0.84 0.92 1.01 1.02 0.98 1.01 1.05 1.08 1.11 1.13 1.18 1.26 1.30 1.35 1.41 1.44 1.50 1.52 1.39 1.28
0.76 0.59 0.58 0.54 0.47 0.43 0.41 0.41 0.43 0.43 0.45 0.47 0.51 0.59 0.59 0.62 0.64 0.65 0.68 0.68 0.65 0.64 0.67 0.71 0.73 0.81 0.90 0.97 1.00 1.02 1.03 1.03 1.08 1.10 1.17 1.23 1.28 1.36 1.47 1.48 1.48 1.48 1.47 1.38
0.65 0.52 0.49 0.46 0.42 0.40 0.40 0.42 0.41 0.42 0.45 0.45 0.45 0.46 0.49 0.52 0.54 0.54 0.55 0.58 0.62 0.65 0.66 0.66 0.66 0.72 0.80 0.85 0.90 0.96 1.02 1.05 1.09 1.11 1.16 1.22 1.20 1.22 1.33 1.38 1.36 1.37 1.41 1.39
0.42 0.38 0.37 0.34 0.38 0.36 0.34 0.36 0.34 0.35 0.37 0.40 0.42 0.41 0.39 0.40 0.42 0.45 0.51 0.58 0.60 0.59 0.60 0.60 0.58 0.61 0.67 0.72 0.79 0.87 0.93 1.01 1.03 1.07 1.15 1.18 1.20 1.20 1.18 1.20 1.25 1.28 1.32 1.33
0.30 0.33 0.39 0.33 0.28 0.27 0.28 0.26 0.26 0.29 0.31 0.35 0.38 0.40 0.39 0.40 0.44 0.51 0.53 0.52 0.51 0.49 0.51 0.50 0.51 0.57 0.60 0.63 0.70 0.78 0.83 0.90 0.94 0.98 1.05 1.12 1.15 1.18 1.17 1.14 1.14 1.15 1.15 1.24
0.32 0.28 0.27 0.25 0.25 0.25 0.26 0.26 0.28 0.31 0.33 0.35 0.36 0.39 0.40 0.41 0.44 0.47 0.49 0.49 0.50 0.52 0.52 0.50 0.52 0.55 0.57 0.61 0.66 0.72 0.79 0.87 0.90 0.92 0.96 1.02 1.05 1.10 1.14 1.11 1.08 1.06 1.09 1.16
0.37 0.35 0.33 0.32 0.30 0.29 0.31 0.35 0.36 0.37 0.36 0.35 0.38 0.40 0.39 0.39 0.40 0.42 0.46 0.48 0.50 0.53 0.52 0.52 0.55 0.53 0.54 0.57 0.63 0.68 0.74 0.79 0.84 0.84 0.89 0.96 1.02 1.07 1.11 1.12 1.08 1.04 1.07 1.19
0.44 0.46 0.46 0.46 0.43 0.39 0.37 0.37 0.38 0.38 0.38 0.39 0.37 0.36 0.38 0.40 0.44 0.47 0.48 0.47 0.45 0.45 0.47 0.50 0.53 0.51 0.50 0.53 0.59 0.63 0.68 0.72 0.75 0.79 0.84 0.92 1.00 1.04 1.06 1.08 1.06 1.03 1.04 1.13
0.40 0.43 0.44 0.43 0.44 0.42 0.40 0.39 0.40 0.39 0.39 0.39 0.39 0.39 0.40 0.42 0.44 0.46 0.47 0.44 0.43 0.46 0.48 0.47 0.51 0.46 0.46 0.53 0.60 0.60 0.63 0.66 0.69 0.73 0.79 0.88 0.93 0.93 0.97 1.01 1.03 1.02 1.01 1.03
0.39 0.40 0.41 0.41 0.40 0.40 0.40 0.39 0.36 0.35 0.36 0.37 0.38 0.37 0.38 0.40 0.42 0.43 0.42 0.43 0.48 0.54 0.52 0.50 0.47 0.42 0.44 0.51 0.61 0.58 0.59 0.63 0.66 0.70 0.74 0.79 0.84 0.88 0.92 0.97 0.99 0.99 0.96 0.96
0.37 0.36 0.36 0.37 0.38 0.37 0.39 0.39 0.38 0.36 0.34 0.34 0.37 0.40 0.40 0.41 0.41 0.42 0.41 0.41 0.42 0.44 0.43 0.45 0.43 0.43 0.48 0.57 0.63 0.59 0.59 0.61 0.64 0.68 0.72 0.76 0.79 0.82 0.86 0.89 0.93 0.94 0.94 0.94
0.35 0.34 0.35 0.35 0.34 0.35 0.35 0.34 0.35 0.36 0.34 0.34 0.35 0.36 0.36 0.36 0.37 0.37 0.38 0.42 0.42 0.45 0.43 0.39 0.42 0.53 0.64 0.67 0.58 0.55 0.57 0.59 0.62 0.65 0.68 0.70 0.74 0.77 0.80 0.83 0.88 0.91 0.92 0.93
0.34 0.33 0.33 0.32 0.33 0.34 0.32 0.30 0.32 0.35 0.36 0.36 0.36 0.37 0.38 0.38 0.38 0.40 0.40 0.38 0.39 0.43 0.41 0.42 0.51 0.60 0.65 0.58 0.51 0.49 0.53 0.56 0.58 0.60 0.62 0.66 0.69 0.73 0.77 0.79 0.81 0.84 0.87 0.87
0.31 0.30 0.32 0.32 0.30 0.28 0.29 0.30 0.32 0.33 0.35 0.35 0.35 0.36 0.37 0.38 0.36 0.36 0.40 0.40 0.42 0.44 0.42 0.45 0.52 0.56 0.54 0.47 0.44 0.45 0.47 0.51 0.55 0.58 0.60 0.63 0.65 0.68 0.70 0.71 0.72 0.71 0.73 0.74
0.29 0.29 0.29 0.29 0.28 0.28 0.30 0.30 0.29 0.29 0.29 0.30 0.30 0.31 0.33 0.37 0.40 0.37 0.35 0.35 0.38 0.40 0.38 0.39 0.44 0.45 0.42 0.40 0.40 0.41 0.44 0.48 0.55 0.59 0.60 0.60 0.60 0.62 0.63 0.63 0.64 0.64 0.64 0.63
0.25 0.26 0.27 0.29 0.31 0.31 0.31 0.31 0.33 0.31 0.30 0.30 0.28 0.27 0.27 0.28 0.29 0.31 0.32 0.34 0.36 0.37 0.36 0.35 0.36 0.38 0.39 0.39 0.40 0.41 0.42 0.44 0.47 0.49 0.51 0.53 0.55 0.57 0.57 0.56 0.56 0.57 0.57 0.56
0.21 0.21 0.21 0.21 0.23 0.25 0.27 0.30 0.33 0.34 0.34 0.36 0.34 0.28 0.27 0.27 0.29 0.30 0.31 0.32 0.33 0.34 0.34 0.34 0.36 0.38 0.40 0.41 0.42 0.42 0.42 0.43 0.44 0.45 0.47 0.49 0.52 0.54 0.54 0.54 0.55 0.55 0.55 0.54